| time (UTC) | temp F | wind direction | speed MPH | gust MPH | rain 1hr in | rain 24hr in | rain mn in | humidity % | barometer mb |
| 20260509011042 | 76 | 303 | 0.0 | 1.0 | 0.00 | 0.01 | 0.01 | 84 | 1000.8 |
| 20260509010938 | 76 | 303 | 0.0 | 1.0 | 0.00 | 0.01 | 0.01 | 84 | 1000.8 |
| 20260509010834 | 76 | 303 | 0.0 | 0.0 | 0.00 | 0.01 | 0.01 | 83 | 1000.9 |
| 20260509010739 | 76 | 303 | 0.0 | 1.0 | 0.00 | 0.01 | 0.01 | 83 | 1000.9 |
| 20260509010631 | 76 | 303 | 0.0 | 1.0 | 0.00 | 0.01 | 0.01 | 83 | 1000.8 |
| 20260509010527 | 76 | 303 | 0.0 | 1.0 | 0.00 | 0.01 | 0.01 | 83 | 1000.9 |
| 20260509010424 | 76 | 303 | 0.0 | 1.0 | 0.00 | 0.01 | 0.01 | 83 | 1000.9 |
| 20260509010320 | 76 | 303 | 0.0 | 1.0 | 0.00 | 0.01 | 0.01 | 83 | 1000.9 |
| 20260509010219 | 76 | 303 | 0.0 | 1.0 | 0.00 | 0.01 | 0.01 | 83 | 1000.9 |
| 20260509010120 | 76 | 303 | 0.0 | 1.0 | 0.00 | 0.01 | 0.01 | 83 | 1000.9 |
| 20260509010020 | 76 | 303 | 0.0 | 1.0 | 0.00 | 0.01 | 0.01 | 83 | 1000.8 |
| 20260509005920 | 76 | 303 | 0.0 | 3.0 | 0.00 | 0.01 | 0.01 | 83 | 1000.8 |
| 20260509005820 | 76 | 303 | 0.0 | 3.0 | 0.00 | 0.01 | 0.01 | 83 | 1000.8 |
| 20260509005718 | 76 | 310 | 0.0 | 3.0 | 0.00 | 0.01 | 0.01 | 83 | 1000.8 |
| 20260509005619 | 76 | 310 | 0.0 | 3.0 | 0.00 | 0.01 | 0.01 | 83 | 1000.8 |
| 20260509005519 | 76 | 310 | 0.0 | 3.0 | 0.00 | 0.01 | 0.01 | 83 | 1000.7 |
| 20260509005418 | 76 | 310 | 0.0 | 3.0 | 0.00 | 0.01 | 0.01 | 83 | 1000.8 |
| 20260509005318 | 76 | 310 | 0.0 | 3.0 | 0.00 | 0.01 | 0.01 | 83 | 1000.7 |
| 20260509005220 | 76 | 310 | 0.0 | 3.0 | 0.00 | 0.01 | 0.01 | 83 | 1000.6 |
| 20260509005122 | 76 | 310 | 0.0 | 3.0 | 0.00 | 0.01 | 0.01 | 83 | 1000.6 |
| 20260509005019 | 76 | 310 | 0.0 | 3.0 | 0.00 | 0.01 | 0.01 | 83 | 1000.6 |
| 20260509004919 | 76 | 309 | 0.0 | 1.0 | 0.00 | 0.01 | 0.01 | 83 | 1000.6 |
| 20260509004820 | 76 | 309 | 0.0 | 1.0 | 0.00 | 0.01 | 0.01 | 83 | 1000.6 |
| 20260509004720 | 76 | 220 | 0.0 | 0.0 | 0.00 | 0.01 | 0.01 | 83 | 1000.6 |
| 20260509004619 | 76 | 220 | 0.0 | 0.0 | 0.00 | 0.01 | 0.01 | 83 | 1000.7 |
| 20260509004520 | 76 | 220 | 0.0 | 0.0 | 0.00 | 0.01 | 0.01 | 83 | 1000.6 |
| 20260509004419 | 76 | 220 | 0.0 | 0.0 | 0.00 | 0.01 | 0.01 | 83 | 1000.6 |
| 20260509004320 | 76 | 220 | 0.0 | 0.0 | 0.00 | 0.01 | 0.01 | 83 | 1000.6 |
| 20260509004218 | 76 | 220 | 0.0 | 0.0 | 0.00 | 0.01 | 0.01 | 83 | 1000.5 |
| 20260509004120 | 76 | 220 | 0.0 | 0.0 | 0.00 | 0.01 | 0.01 | 83 | 1000.6 |
| 20260509004019 | 76 | 220 | 0.0 | 1.0 | 0.00 | 0.01 | 0.01 | 83 | 1000.6 |
| 20260509003919 | 76 | 220 | 0.0 | 1.0 | 0.00 | 0.01 | 0.01 | 83 | 1000.5 |
| 20260509003818 | 76 | 220 | 0.0 | 1.0 | 0.00 | 0.01 | 0.01 | 83 | 1000.6 |
| 20260509003718 | 76 | 220 | 0.0 | 1.0 | 0.00 | 0.01 | 0.01 | 83 | 1000.6 |
| 20260509003618 | 76 | 220 | 0.0 | 1.0 | 0.00 | 0.01 | 0.01 | 83 | 1000.5 |
| 20260509003523 | 76 | 220 | 0.0 | 1.0 | 0.00 | 0.01 | 0.01 | 83 | 1000.5 |
| 20260509003418 | 76 | 220 | 0.0 | 1.0 | 0.00 | 0.01 | 0.01 | 83 | 1000.5 |
| 20260509003318 | 77 | 220 | 0.0 | 1.0 | 0.00 | 0.01 | 0.01 | 83 | 1000.5 |
| 20260509003220 | 77 | 220 | 0.0 | 1.0 | 0.00 | 0.01 | 0.01 | 83 | 1000.4 |
| 20260509003119 | 77 | 214 | 0.0 | 1.0 | 0.00 | 0.01 | 0.01 | 83 | 1000.4 |
| 20260509003018 | 77 | 214 | 0.0 | 0.0 | 0.00 | 0.01 | 0.01 | 83 | 1000.5 |
| 20260509002920 | 77 | 209 | 0.0 | 0.0 | 0.00 | 0.01 | 0.01 | 83 | 1000.5 |
| 20260509002817 | 77 | 213 | 0.0 | 0.0 | 0.00 | 0.01 | 0.01 | 83 | 1000.4 |
| 20260509002719 | 77 | 213 | 0.0 | 0.0 | 0.00 | 0.01 | 0.01 | 83 | 1000.4 |
| 20260509002619 | 77 | 213 | 0.0 | 0.0 | 0.00 | 0.01 | 0.01 | 83 | 1000.4 |
| 20260509002520 | 77 | 213 | 0.0 | 0.0 | 0.00 | 0.01 | 0.01 | 83 | 1000.3 |
| 20260509002419 | 77 | 213 | 0.0 | 0.0 | 0.00 | 0.01 | 0.01 | 83 | 1000.4 |
| 20260509002318 | 77 | 86 | 0.0 | 0.0 | 0.00 | 0.01 | 0.01 | 83 | 1000.3 |
| 20260509002218 | 77 | 86 | 0.0 | 0.0 | 0.00 | 0.01 | 0.01 | 83 | 1000.5 |
| 20260509002125 | 77 | 85 | 0.0 | 0.0 | 0.00 | 0.01 | 0.01 | 82 | 1000.5 |
| 20260509002018 | 77 | 85 | 0.0 | 0.0 | 0.00 | 0.01 | 0.01 | 82 | 1000.4 |
| 20260509001917 | 77 | 85 | 0.0 | 0.0 | 0.00 | 0.01 | 0.01 | 82 | 1000.4 |
| 20260509001819 | 77 | 85 | 0.0 | 0.0 | 0.00 | 0.01 | 0.01 | 82 | 1000.5 |
| 20260509001717 | 77 | 85 | 0.0 | 1.0 | 0.00 | 0.01 | 0.01 | 82 | 1000.6 |
| 20260509001622 | 77 | 85 | 0.0 | 1.0 | 0.00 | 0.01 | 0.01 | 82 | 1000.5 |
| 20260509001517 | 77 | 86 | 0.0 | 1.0 | 0.00 | 0.01 | 0.01 | 82 | 1000.5 |
| 20260509001419 | 77 | 87 | 0.0 | 1.0 | 0.00 | 0.01 | 0.01 | 82 | 1000.5 |
| 20260509001318 | 77 | 87 | 0.0 | 1.0 | 0.00 | 0.01 | 0.01 | 82 | 1000.6 |
| 20260509001219 | 77 | 87 | 0.0 | 1.0 | 0.00 | 0.01 | 0.01 | 82 | 1000.6 |
| 20260509001119 | 77 | 86 | 0.0 | 1.0 | 0.00 | 0.01 | 0.01 | 82 | 1000.6 |
| 20260509001022 | 77 | 86 | 0.0 | 1.0 | 0.00 | 0.01 | 0.01 | 82 | 1000.6 |
| 20260509000917 | 77 | 86 | 0.0 | 1.0 | 0.00 | 0.01 | 0.01 | 82 | 1000.6 |
| 20260509000819 | 77 | 86 | 0.0 | 1.0 | 0.00 | 0.01 | 0.01 | 82 | 1000.6 |
| 20260509000718 | 77 | 321 | 0.0 | 0.0 | 0.00 | 0.01 | 0.01 | 82 | 1000.6 |
| 20260509000618 | 77 | 321 | 0.0 | 0.0 | 0.00 | 0.01 | 0.01 | 82 | 1000.7 |
| 20260509000518 | 77 | 321 | 0.0 | 0.0 | 0.00 | 0.01 | 0.01 | 82 | 1000.8 |
| 20260509000418 | 77 | 321 | 0.0 | 0.0 | 0.00 | 0.01 | 0.01 | 82 | 1000.9 |
| 20260509000319 | 77 | 321 | 0.0 | 0.0 | 0.00 | 0.01 | 0.01 | 82 | 1000.8 |
| 20260509000220 | 77 | 321 | 0.0 | 0.0 | 0.00 | 0.01 | 0.01 | 82 | 1000.8 |
| 20260509000115 | 77 | 321 | 0.0 | 0.0 | 0.00 | 0.01 | 0.01 | 82 | 1000.7 |
| 20260509000005 | 77 | 321 | 0.0 | 2.0 | 0.00 | 0.01 | 0.01 | 82 | 1000.7 |
| 20260508235904 | 77 | 321 | 0.0 | 2.0 | 0.00 | 0.01 | 0.01 | 82 | 1000.7 |
| 20260508235802 | 77 | 321 | 0.0 | 2.0 | 0.00 | 0.01 | 0.01 | 82 | 1000.8 |
| 20260508235704 | 77 | 321 | 0.0 | 2.0 | 0.00 | 0.01 | 0.01 | 82 | 1000.7 |
| 20260508235602 | 77 | 321 | 0.0 | 2.0 | 0.00 | 0.01 | 0.01 | 82 | 1000.7 |
| 20260508235503 | 77 | 321 | 0.0 | 2.0 | 0.00 | 0.01 | 0.01 | 82 | 1000.7 |
| 20260508235403 | 77 | 321 | 0.0 | 2.0 | 0.00 | 0.01 | 0.01 | 82 | 1000.8 |
| 20260508235255 | 77 | 321 | 0.0 | 2.0 | 0.00 | 0.01 | 0.01 | 82 | 1000.7 |
| 20260508235155 | 77 | 321 | 0.0 | 2.0 | 0.00 | 0.01 | 0.01 | 82 | 1000.8 |
| 20260508235050 | 78 | 0 | 0.0 | 0.0 | 0.00 | 0.01 | 0.01 | 82 | 1000.8 |
| 20260508234947 | 78 | 0 | 0.0 | 0.0 | 0.00 | 0.01 | 0.01 | 82 | 1000.9 |
| 20260508234847 | 78 | 0 | 0.0 | 2.0 | 0.00 | 0.01 | 0.01 | 82 | 1000.8 |
| 20260508234746 | 78 | 0 | 0.0 | 2.0 | 0.00 | 0.01 | 0.01 | 82 | 1000.9 |
| 20260508234648 | 78 | 0 | 0.0 | 2.0 | 0.00 | 0.01 | 0.01 | 82 | 1000.8 |
| 20260508234542 | 78 | 0 | 0.0 | 2.0 | 0.00 | 0.01 | 0.01 | 82 | 1000.9 |
| 20260508234439 | 78 | 0 | 0.0 | 2.0 | 0.00 | 0.01 | 0.01 | 82 | 1000.8 |
| 20260508234336 | 78 | 0 | 0.0 | 2.0 | 0.00 | 0.01 | 0.01 | 82 | 1000.8 |
| 20260508234234 | 78 | 0 | 0.0 | 2.0 | 0.00 | 0.01 | 0.01 | 82 | 1000.8 |
| 20260508234131 | 78 | 0 | 0.0 | 2.0 | 0.00 | 0.01 | 0.01 | 82 | 1000.8 |
| 20260508234031 | 78 | 0 | 0.0 | 2.0 | 0.00 | 0.01 | 0.01 | 82 | 1000.8 |
| 20260508233932 | 78 | 0 | 0.0 | 2.0 | 0.00 | 0.01 | 0.01 | 82 | 1000.8 |
| 20260508233832 | 78 | 323 | 0.0 | 1.0 | 0.00 | 0.01 | 0.01 | 82 | 1000.9 |
| 20260508233732 | 78 | 323 | 0.0 | 2.0 | 0.00 | 0.01 | 0.01 | 82 | 1000.9 |
| 20260508233632 | 78 | 323 | 0.0 | 2.0 | 0.00 | 0.01 | 0.01 | 82 | 1000.8 |
| 20260508233531 | 78 | 323 | 0.0 | 2.0 | 0.00 | 0.01 | 0.01 | 82 | 1000.9 |
| 20260508233433 | 78 | 323 | 0.0 | 2.0 | 0.00 | 0.01 | 0.01 | 82 | 1000.9 |
| 20260508233329 | 78 | 323 | 0.0 | 2.0 | 0.00 | 0.01 | 0.01 | 82 | 1000.8 |
| 20260508233227 | 78 | 321 | 0.0 | 2.0 | 0.00 | 0.01 | 0.01 | 82 | 1000.9 |
| 20260508233121 | 78 | 321 | 0.0 | 2.0 | 0.00 | 0.01 | 0.01 | 82 | 1000.9 |
| 20260508233019 | 78 | 321 | 0.0 | 2.0 | 0.00 | 0.01 | 0.01 | 82 | 1000.9 |
| 20260508232916 | 78 | 321 | 0.0 | 2.0 | 0.00 | 0.01 | 0.01 | 82 | 1000.9 |
| 20260508232818 | 78 | 206 | 0.0 | 2.0 | 0.00 | 0.01 | 0.01 | 82 | 1000.9 |
| 20260508232722 | 78 | 196 | 0.0 | 2.0 | 0.00 | 0.01 | 0.01 | 82 | 1000.9 |
| 20260508232616 | 78 | 233 | 0.0 | 2.0 | 0.00 | 0.01 | 0.01 | 82 | 1000.9 |
| 20260508232516 | 78 | 288 | 0.0 | 0.0 | 0.00 | 0.01 | 0.01 | 82 | 1000.8 |
| 20260508232416 | 78 | 288 | 0.0 | 0.0 | 0.00 | 0.01 | 0.01 | 82 | 1000.8 |
| 20260508232318 | 78 | 288 | 0.0 | 0.0 | 0.00 | 0.01 | 0.01 | 82 | 1000.8 |
| 20260508232216 | 78 | 288 | 0.0 | 0.0 | 0.00 | 0.01 | 0.01 | 82 | 1000.8 |
| 20260508232117 | 78 | 288 | 0.0 | 0.0 | 0.00 | 0.01 | 0.01 | 82 | 1000.8 |
| 20260508232016 | 78 | 288 | 0.0 | 0.0 | 0.00 | 0.01 | 0.01 | 82 | 1000.7 |
| 20260508231917 | 78 | 288 | 0.0 | 0.0 | 0.00 | 0.01 | 0.01 | 82 | 1000.8 |
| 20260508231818 | 78 | 288 | 0.0 | 0.0 | 0.00 | 0.01 | 0.01 | 82 | 1000.7 |
| 20260508231717 | 78 | 288 | 0.0 | 0.0 | 0.00 | 0.01 | 0.01 | 82 | 1000.8 |
| 20260508231617 | 78 | 288 | 0.0 | 0.0 | 0.00 | 0.01 | 0.01 | 82 | 1000.7 |
| 20260508231516 | 78 | 288 | 0.0 | 0.0 | 0.00 | 0.01 | 0.01 | 82 | 1000.8 |
| 20260508231418 | 78 | 288 | 0.0 | 0.0 | 0.00 | 0.01 | 0.01 | 82 | 1000.7 |
| 20260508231316 | 78 | 288 | 0.0 | 0.0 | 0.00 | 0.01 | 0.01 | 82 | 1000.7 |
| 20260508231217 | 78 | 288 | 0.0 | 0.0 | 0.00 | 0.01 | 0.01 | 82 | 1000.7 |
| 20260508231122 | 78 | 288 | 0.0 | 0.0 | 0.00 | 0.01 | 0.01 | 82 | 1000.8 |
| 20260508231022 | 78 | 288 | 0.0 | 0.0 | 0.00 | 0.01 | 0.01 | 82 | 1000.8 |
| 20260508230917 | 78 | 288 | 0.0 | 0.0 | 0.00 | 0.01 | 0.01 | 82 | 1000.7 |
| 20260508230817 | 78 | 288 | 0.0 | 0.0 | 0.00 | 0.01 | 0.01 | 82 | 1000.8 |
| 20260508230717 | 78 | 288 | 0.0 | 0.0 | 0.00 | 0.01 | 0.01 | 82 | 1000.8 |
| 20260508230617 | 0 | 0.0 | 0.0 | 0.00 | 0.01 | 0.01 | 1000.9 | ||
| 20260508230516 | 0 | 0.0 | 0.0 | 0.00 | 0.01 | 0.01 | 1000.8 | ||
| 20260508230415 | 0 | 0.0 | 0.0 | 0.00 | 0.01 | 0.01 | 1000.9 | ||
| 20260508230316 | 0 | 0.0 | 0.0 | 0.00 | 0.01 | 0.01 | 1000.9 | ||
| 20260508230216 | 0 | 0.0 | 0.0 | 0.00 | 0.01 | 0.01 | 1000.9 | ||
| 20260508230116 | 0 | 0.0 | 0.0 | 0.00 | 0.01 | 0.01 | 1000.9 | ||
| 20260508230019 | 0 | 0.0 | 0.0 | 0.00 | 0.01 | 0.01 | 1000.9 | ||
| 20260508225915 | 78 | 288 | 0.0 | 0.0 | 0.00 | 0.01 | 0.01 | 82 | 1000.9 |
| 20260508225815 | 78 | 288 | 0.0 | 0.0 | 0.00 | 0.01 | 0.01 | 82 | 1000.9 |
| 20260508225718 | 78 | 288 | 0.0 | 0.0 | 0.00 | 0.01 | 0.01 | 82 | 1000.9 |
| 20260508225615 | 78 | 288 | 0.0 | 0.0 | 0.00 | 0.01 | 0.01 | 82 | 1000.8 |
| 20260508225510 | 78 | 288 | 0.0 | 0.0 | 0.00 | 0.01 | 0.01 | 82 | 1000.8 |
| 20260508225411 | 78 | 288 | 0.0 | 0.0 | 0.00 | 0.01 | 0.01 | 82 | 1000.9 |
| 20260508225310 | 78 | 288 | 0.0 | 0.0 | 0.00 | 0.01 | 0.01 | 82 | 1000.9 |
| 20260508225210 | 78 | 288 | 0.0 | 0.0 | 0.00 | 0.01 | 0.01 | 82 | 1000.8 |
| 20260508225110 | 78 | 288 | 0.0 | 0.0 | 0.00 | 0.01 | 0.01 | 82 | 1000.8 |
| 20260508225010 | 78 | 288 | 0.0 | 0.0 | 0.00 | 0.01 | 0.01 | 82 | 1000.8 |
| 20260508224909 | 78 | 288 | 0.0 | 0.0 | 0.00 | 0.01 | 0.01 | 82 | 1000.8 |
| 20260508224811 | 78 | 288 | 0.0 | 0.0 | 0.00 | 0.01 | 0.01 | 82 | 1000.8 |
| 20260508224711 | 78 | 288 | 0.0 | 0.0 | 0.00 | 0.01 | 0.01 | 82 | 1000.8 |
| 20260508224610 | 78 | 288 | 0.0 | 0.0 | 0.00 | 0.01 | 0.01 | 82 | 1000.8 |
| 20260508224512 | 78 | 288 | 0.0 | 0.0 | 0.00 | 0.01 | 0.01 | 82 | 1000.7 |
| 20260508224411 | 78 | 288 | 0.0 | 1.0 | 0.00 | 0.01 | 0.01 | 82 | 1000.7 |
| 20260508224309 | 78 | 288 | 0.0 | 1.0 | 0.00 | 0.01 | 0.01 | 82 | 1000.7 |
| 20260508224209 | 78 | 288 | 0.0 | 1.0 | 0.00 | 0.01 | 0.01 | 82 | 1000.6 |
| 20260508224115 | 78 | 288 | 0.0 | 1.0 | 0.00 | 0.01 | 0.01 | 82 | 1000.7 |
| 20260508224011 | 78 | 288 | 0.0 | 1.0 | 0.00 | 0.01 | 0.01 | 82 | 1000.7 |
| 20260508223911 | 78 | 288 | 0.0 | 1.0 | 0.00 | 0.01 | 0.01 | 82 | 1000.7 |
| 20260508223809 | 78 | 288 | 0.0 | 1.0 | 0.00 | 0.01 | 0.01 | 82 | 1000.7 |
| 20260508223710 | 78 | 288 | 0.0 | 1.0 | 0.00 | 0.01 | 0.01 | 82 | 1000.7 |
| 20260508223610 | 78 | 288 | 0.0 | 2.0 | 0.00 | 0.01 | 0.01 | 82 | 1000.7 |
| 20260508223510 | 78 | 288 | 0.0 | 2.0 | 0.00 | 0.01 | 0.01 | 82 | 1000.7 |
| 20260508223411 | 78 | 288 | 0.0 | 2.0 | 0.00 | 0.01 | 0.01 | 82 | 1000.7 |
| 20260508223311 | 78 | 288 | 0.0 | 2.0 | 0.00 | 0.01 | 0.01 | 82 | 1000.7 |
| 20260508223211 | 78 | 288 | 0.0 | 2.0 | 0.00 | 0.01 | 0.01 | 82 | 1000.6 |
| 20260508223109 | 78 | 288 | 0.0 | 2.0 | 0.00 | 0.01 | 0.01 | 82 | 1000.6 |
| 20260508223009 | 78 | 288 | 0.0 | 2.0 | 0.00 | 0.01 | 0.01 | 82 | 1000.7 |
| 20260508222910 | 78 | 288 | 0.0 | 2.0 | 0.00 | 0.01 | 0.01 | 82 | 1000.6 |
| 20260508222811 | 78 | 288 | 0.0 | 2.0 | 0.00 | 0.01 | 0.01 | 82 | 1000.6 |
| 20260508222709 | 78 | 288 | 0.0 | 2.0 | 0.00 | 0.01 | 0.01 | 82 | 1000.7 |
| 20260508222610 | 78 | 204 | 0.0 | 2.0 | 0.00 | 0.01 | 0.01 | 82 | 1000.7 |
| 20260508222511 | 78 | 204 | 0.0 | 2.0 | 0.00 | 0.01 | 0.01 | 82 | 1000.7 |
| 20260508222411 | 78 | 204 | 0.0 | 2.0 | 0.00 | 0.01 | 0.01 | 82 | 1000.7 |
| 20260508222311 | 78 | 204 | 0.0 | 2.0 | 0.00 | 0.01 | 0.01 | 82 | 1000.6 |
| 20260508222211 | 78 | 204 | 0.0 | 2.0 | 0.00 | 0.01 | 0.01 | 82 | 1000.6 |
| 20260508222110 | 78 | 204 | 0.0 | 2.0 | 0.00 | 0.01 | 0.01 | 82 | 1000.6 |
| 20260508222010 | 78 | 204 | 0.0 | 2.0 | 0.00 | 0.01 | 0.01 | 81 | 1000.6 |
| 20260508221909 | 78 | 204 | 0.0 | 2.0 | 0.00 | 0.01 | 0.01 | 81 | 1000.5 |
| 20260508221809 | 78 | 204 | 0.0 | 2.0 | 0.00 | 0.01 | 0.01 | 81 | 1000.6 |
| 20260508221712 | 78 | 183 | 0.0 | 2.0 | 0.00 | 0.01 | 0.01 | 81 | 1000.6 |
| 20260508221611 | 78 | 183 | 0.0 | 2.0 | 0.00 | 0.01 | 0.01 | 81 | 1000.6 |
| 20260508221510 | 78 | 183 | 0.0 | 2.0 | 0.00 | 0.01 | 0.01 | 82 | 1000.7 |
| 20260508221409 | 78 | 210 | 0.0 | 1.0 | 0.00 | 0.01 | 0.01 | 81 | 1000.7 |
| 20260508221311 | 78 | 210 | 0.0 | 1.0 | 0.00 | 0.01 | 0.01 | 82 | 1000.7 |
| 20260508221211 | 78 | 210 | 0.0 | 1.0 | 0.00 | 0.01 | 0.01 | 82 | 1000.7 |
| 20260508221109 | 78 | 210 | 0.0 | 1.0 | 0.00 | 0.01 | 0.01 | 82 | 1000.8 |
| 20260508221011 | 78 | 210 | 0.0 | 1.0 | 0.00 | 0.01 | 0.01 | 82 | 1000.8 |
| 20260508220910 | 78 | 210 | 0.0 | 1.0 | 0.00 | 0.01 | 0.01 | 82 | 1000.8 |
| 20260508220812 | 78 | 213 | 0.0 | 1.0 | 0.00 | 0.01 | 0.01 | 82 | 1000.8 |
| 20260508220709 | 78 | 213 | 0.0 | 1.0 | 0.00 | 0.01 | 0.01 | 81 | 1000.8 |
| 20260508220610 | 78 | 213 | 0.0 | 1.0 | 0.00 | 0.01 | 0.01 | 81 | 1000.8 |
| 20260508220509 | 78 | 213 | 0.0 | 1.0 | 0.00 | 0.01 | 0.01 | 81 | 1000.7 |
| 20260508220407 | 78 | 213 | 0.0 | 1.0 | 0.00 | 0.01 | 0.01 | 81 | 1000.8 |
| 20260508220303 | 78 | 213 | 0.0 | 1.0 | 0.00 | 0.01 | 0.01 | 82 | 1000.8 |
| 20260508220203 | 78 | 213 | 0.0 | 1.0 | 0.00 | 0.01 | 0.01 | 82 | 1000.8 |
| 20260508220104 | 78 | 213 | 0.0 | 1.0 | 0.00 | 0.01 | 0.01 | 82 | 1000.8 |
| 20260508220004 | 78 | 213 | 0.0 | 1.0 | 0.00 | 0.01 | 0.01 | 81 | 1000.8 |
| 20260508215903 | 78 | 213 | 0.0 | 1.0 | 0.00 | 0.01 | 0.01 | 82 | 1000.8 |
| 20260508215802 | 78 | 212 | 0.0 | 1.0 | 0.00 | 0.01 | 0.01 | 82 | 1000.7 |
| 20260508215704 | 78 | 217 | 0.0 | 1.0 | 0.00 | 0.01 | 0.01 | 82 | 1000.6 |
| 20260508215602 | 78 | 217 | 0.0 | 1.0 | 0.00 | 0.01 | 0.01 | 82 | 1000.6 |
| 20260508215504 | 78 | 217 | 0.0 | 1.0 | 0.00 | 0.01 | 0.01 | 82 | 1000.6 |
| 20260508215402 | 78 | 217 | 0.0 | 1.0 | 0.00 | 0.01 | 0.01 | 82 | 1000.6 |
| 20260508215306 | 78 | 217 | 0.0 | 1.0 | 0.00 | 0.01 | 0.01 | 82 | 1000.7 |
| 20260508215202 | 78 | 217 | 0.0 | 1.0 | 0.00 | 0.01 | 0.01 | 82 | 1000.8 |
| 20260508215104 | 78 | 216 | 0.0 | 1.0 | 0.00 | 0.01 | 0.01 | 82 | 1000.7 |
| 20260508215005 | 78 | 216 | 0.0 | 1.0 | 0.00 | 0.01 | 0.01 | 82 | 1000.8 |
| 20260508214903 | 78 | 216 | 0.0 | 1.0 | 0.00 | 0.01 | 0.01 | 82 | 1000.9 |
| 20260508214803 | 78 | 212 | 0.0 | 2.0 | 0.00 | 0.01 | 0.01 | 82 | 1000.9 |
| 20260508214703 | 78 | 212 | 0.0 | 2.0 | 0.00 | 0.01 | 0.01 | 82 | 1000.9 |
| 20260508214602 | 78 | 212 | 0.0 | 2.0 | 0.00 | 0.01 | 0.01 | 82 | 1001.0 |
| 20260508214504 | 78 | 212 | 0.0 | 2.0 | 0.00 | 0.01 | 0.01 | 81 | 1000.9 |
| 20260508214402 | 78 | 212 | 0.0 | 2.0 | 0.00 | 0.01 | 0.01 | 81 | 1001.0 |
| 20260508214302 | 78 | 212 | 0.0 | 2.0 | 0.00 | 0.01 | 0.01 | 81 | 1001.0 |
| 20260508214206 | 78 | 212 | 0.0 | 2.0 | 0.00 | 0.01 | 0.01 | 81 | 1001.0 |
| 20260508214104 | 78 | 212 | 0.0 | 2.0 | 0.00 | 0.01 | 0.01 | 81 | 1001.0 |
| 20260508214003 | 78 | 212 | 0.0 | 2.0 | 0.00 | 0.01 | 0.01 | 81 | 1001.0 |
| 20260508213903 | 78 | 212 | 0.0 | 2.0 | 0.00 | 0.01 | 0.01 | 81 | 1001.0 |
| 20260508213802 | 78 | 202 | 0.0 | 0.0 | 0.00 | 0.01 | 0.01 | 81 | 1001.1 |
| 20260508213702 | 78 | 202 | 0.0 | 0.0 | 0.00 | 0.01 | 0.01 | 81 | 1001.1 |
| 20260508213604 | 78 | 202 | 0.0 | 0.0 | 0.00 | 0.01 | 0.01 | 81 | 1001.1 |
| 20260508213503 | 78 | 202 | 0.0 | 0.0 | 0.00 | 0.01 | 0.01 | 81 | 1001.2 |
| 20260508213404 | 78 | 202 | 0.0 | 0.0 | 0.00 | 0.01 | 0.01 | 81 | 1001.1 |
| 20260508213304 | 78 | 202 | 0.0 | 0.0 | 0.00 | 0.01 | 0.01 | 82 | 1001.1 |
| 20260508213202 | 78 | 202 | 0.0 | 0.0 | 0.00 | 0.01 | 0.01 | 82 | 1001.1 |
| 20260508213104 | 78 | 202 | 0.0 | 0.0 | 0.00 | 0.01 | 0.01 | 82 | 1001.1 |
| 20260508213003 | 78 | 202 | 0.0 | 2.0 | 0.00 | 0.01 | 0.01 | 82 | 1001.1 |
| 20260508212903 | 78 | 202 | 0.0 | 2.0 | 0.00 | 0.01 | 0.01 | 82 | 1001.0 |
| 20260508212803 | 78 | 202 | 0.0 | 2.0 | 0.00 | 0.01 | 0.01 | 82 | 1001.1 |
| 20260508212702 | 78 | 202 | 0.0 | 2.0 | 0.00 | 0.01 | 0.01 | 82 | 1001.0 |
| 20260508212608 | 78 | 202 | 0.0 | 2.0 | 0.00 | 0.01 | 0.01 | 82 | 1001.1 |
| 20260508212503 | 78 | 202 | 0.0 | 2.0 | 0.00 | 0.01 | 0.01 | 82 | 1001.1 |
| 20260508212402 | 78 | 202 | 0.0 | 2.0 | 0.00 | 0.01 | 0.01 | 82 | 1001.1 |
| 20260508212306 | 78 | 202 | 0.0 | 2.0 | 0.00 | 0.01 | 0.01 | 82 | 1001.1 |
| 20260508212202 | 78 | 202 | 0.0 | 2.0 | 0.00 | 0.01 | 0.01 | 82 | 1001.2 |
| 20260508212102 | 78 | 202 | 0.0 | 2.0 | 0.00 | 0.01 | 0.01 | 81 | 1001.2 |
| 20260508212005 | 78 | 234 | 0.0 | 0.0 | 0.00 | 0.01 | 0.01 | 81 | 1001.2 |
| 20260508211903 | 78 | 234 | 0.0 | 0.0 | 0.00 | 0.01 | 0.01 | 81 | 1001.2 |
| 20260508211803 | 78 | 234 | 0.0 | 0.0 | 0.00 | 0.01 | 0.01 | 81 | 1001.3 |
| 20260508211704 | 78 | 234 | 0.0 | 0.0 | 0.00 | 0.01 | 0.01 | 82 | 1001.3 |
| 20260508211602 | 78 | 234 | 0.0 | 0.0 | 0.00 | 0.01 | 0.01 | 82 | 1001.3 |
| 20260508211504 | 78 | 234 | 0.0 | 1.0 | 0.00 | 0.01 | 0.01 | 82 | 1001.3 |
| 20260508211358 | 78 | 234 | 0.0 | 1.0 | 0.00 | 0.01 | 0.01 | 82 | 1001.3 |
| 20260508211300 | 78 | 234 | 0.0 | 1.0 | 0.00 | 0.01 | 0.01 | 82 | 1001.3 |
| 20260508211155 | 78 | 234 | 0.0 | 1.0 | 0.00 | 0.01 | 0.01 | 82 | 1001.4 |
| 20260508211051 | 78 | 234 | 0.0 | 1.0 | 0.00 | 0.01 | 0.01 | 82 | 1001.3 |
| 20260508210944 | 78 | 234 | 0.0 | 1.0 | 0.00 | 0.01 | 0.01 | 82 | 1001.3 |
| 20260508210830 | 78 | 234 | 0.0 | 1.0 | 0.00 | 0.01 | 0.01 | 82 | 1001.3 |
| 20260508210731 | 78 | 234 | 0.0 | 1.0 | 0.00 | 0.01 | 0.01 | 81 | 1001.2 |
| 20260508210630 | 78 | 234 | 0.0 | 1.0 | 0.00 | 0.01 | 0.01 | 81 | 1001.3 |
| 20260508210532 | 78 | 234 | 0.0 | 2.0 | 0.00 | 0.01 | 0.01 | 81 | 1001.3 |
| 20260508210423 | 78 | 314 | 0.0 | 2.0 | 0.00 | 0.01 | 0.01 | 81 | 1001.3 |
| 20260508210320 | 78 | 314 | 0.0 | 2.0 | 0.00 | 0.01 | 0.01 | 81 | 1001.3 |
| 20260508210216 | 78 | 314 | 0.0 | 2.0 | 0.00 | 0.01 | 0.01 | 81 | 1001.3 |
| 20260508210115 | 78 | 314 | 0.0 | 2.0 | 0.00 | 0.01 | 0.01 | 81 | 1001.3 |
| 20260508210010 | 78 | 314 | 0.0 | 2.0 | 0.00 | 0.01 | 0.01 | 81 | 1001.3 |
| 20260508205908 | 78 | 314 | 0.0 | 2.0 | 0.00 | 0.01 | 0.01 | 81 | 1001.3 |
| 20260508205808 | 78 | 314 | 0.0 | 2.0 | 0.00 | 0.01 | 0.01 | 81 | 1001.3 |
| 20260508205708 | 78 | 314 | 0.0 | 2.0 | 0.00 | 0.01 | 0.01 | 80 | 1001.3 |
| 20260508205608 | 78 | 314 | 0.0 | 2.0 | 0.00 | 0.01 | 0.01 | 81 | 1001.2 |
| 20260508205507 | 78 | 0 | 0.0 | 2.0 | 0.00 | 0.01 | 0.01 | 81 | 1001.2 |
| 20260508205407 | 78 | 0 | 0.0 | 2.0 | 0.00 | 0.01 | 0.01 | 81 | 1001.3 |
| 20260508205307 | 78 | 0 | 0.0 | 2.0 | 0.00 | 0.01 | 0.01 | 80 | 1001.2 |
| 20260508205208 | 78 | 0 | 0.0 | 2.0 | 0.00 | 0.01 | 0.01 | 80 | 1001.2 |
| 20260508205111 | 78 | 0 | 0.0 | 2.0 | 0.00 | 0.01 | 0.01 | 80 | 1001.3 |
| 20260508205007 | 78 | 0 | 1.0 | 2.0 | 0.00 | 0.01 | 0.01 | 81 | 1001.3 |
| 20260508204907 | 78 | 0 | 1.0 | 2.0 | 0.00 | 0.01 | 0.01 | 81 | 1001.3 |
| 20260508204807 | 78 | 0 | 1.0 | 2.0 | 0.00 | 0.01 | 0.01 | 81 | 1001.4 |
| 20260508204708 | 78 | 303 | 0.0 | 2.0 | 0.00 | 0.01 | 0.01 | 82 | 1001.4 |
| 20260508204607 | 78 | 35 | 0.0 | 2.0 | 0.00 | 0.01 | 0.01 | 82 | 1001.4 |
| 20260508204507 | 78 | 35 | 0.0 | 2.0 | 0.00 | 0.01 | 0.01 | 82 | 1001.4 |
| 20260508204409 | 78 | 39 | 1.0 | 2.0 | 0.00 | 0.01 | 0.01 | 82 | 1001.4 |
| 20260508204307 | 78 | 38 | 1.0 | 2.0 | 0.00 | 0.01 | 0.01 | 82 | 1001.4 |
| 20260508204207 | 77 | 93 | 0.0 | 1.0 | 0.00 | 0.01 | 0.01 | 82 | 1001.5 |
| 20260508204107 | 77 | 44 | 0.0 | 1.0 | 0.00 | 0.01 | 0.01 | 82 | 1001.5 |
| 20260508204007 | 77 | 44 | 0.0 | 2.0 | 0.00 | 0.01 | 0.01 | 81 | 1001.5 |
| 20260508203908 | 77 | 44 | 0.0 | 2.0 | 0.00 | 0.01 | 0.01 | 81 | 1001.6 |
| 20260508203807 | 77 | 44 | 0.0 | 2.0 | 0.00 | 0.01 | 0.01 | 81 | 1001.6 |
| 20260508203706 | 77 | 44 | 0.0 | 2.0 | 0.00 | 0.01 | 0.01 | 82 | 1001.7 |
| 20260508203608 | 77 | 44 | 0.0 | 2.0 | 0.00 | 0.01 | 0.01 | 82 | 1001.7 |
| 20260508203507 | 77 | 44 | 0.0 | 2.0 | 0.00 | 0.01 | 0.01 | 82 | 1001.7 |
| 20260508203407 | 77 | 44 | 0.0 | 2.0 | 0.00 | 0.01 | 0.01 | 82 | 1001.8 |
| 20260508203309 | 77 | 44 | 0.0 | 2.0 | 0.00 | 0.01 | 0.01 | 82 | 1001.7 |
| 20260508203208 | 77 | 44 | 0.0 | 2.0 | 0.00 | 0.01 | 0.01 | 82 | 1001.8 |
| 20260508203107 | 77 | 44 | 0.0 | 2.0 | 0.00 | 0.01 | 0.01 | 82 | 1001.8 |
| 20260508203006 | 77 | 44 | 0.0 | 2.0 | 0.00 | 0.01 | 0.01 | 81 | 1001.8 |
| 20260508202906 | 77 | 252 | 0.0 | 1.0 | 0.00 | 0.01 | 0.01 | 81 | 1001.8 |
| 20260508202807 | 77 | 252 | 0.0 | 1.0 | 0.00 | 0.01 | 0.01 | 81 | 1001.8 |
| 20260508202708 | 77 | 252 | 0.0 | 1.0 | 0.00 | 0.01 | 0.01 | 81 | 1001.8 |
| 20260508202608 | 77 | 252 | 0.0 | 1.0 | 0.00 | 0.01 | 0.01 | 81 | 1001.8 |
| 20260508202508 | 77 | 252 | 0.0 | 1.0 | 0.00 | 0.01 | 0.01 | 81 | 1001.7 |
| 20260508202408 | 77 | 250 | 0.0 | 1.0 | 0.00 | 0.01 | 0.01 | 81 | 1001.7 |
| 20260508202308 | 77 | 238 | 0.0 | 1.0 | 0.00 | 0.01 | 0.01 | 81 | 1001.7 |
| 20260508202207 | 77 | 238 | 0.0 | 1.0 | 0.00 | 0.01 | 0.01 | 82 | 1001.8 |
| 20260508202107 | 77 | 237 | 0.0 | 1.0 | 0.00 | 0.01 | 0.01 | 82 | 1001.8 |
| 20260508202007 | 77 | 237 | 0.0 | 3.0 | 0.00 | 0.01 | 0.01 | 82 | 1001.8 |
| 20260508201907 | 77 | 237 | 0.0 | 3.0 | 0.00 | 0.01 | 0.01 | 82 | 1001.8 |
| 20260508201806 | 77 | 235 | 0.0 | 3.0 | 0.00 | 0.01 | 0.01 | 82 | 1001.8 |
| 20260508201707 | 77 | 234 | 0.0 | 3.0 | 0.00 | 0.01 | 0.01 | 82 | 1001.8 |
| 20260508201606 | 76 | 234 | 0.0 | 3.0 | 0.00 | 0.01 | 0.01 | 81 | 1001.8 |
| 20260508201506 | 76 | 234 | 0.0 | 3.0 | 0.00 | 0.01 | 0.01 | 81 | 1001.8 |
| 20260508201407 | 77 | 234 | 0.0 | 3.0 | 0.00 | 0.01 | 0.01 | 81 | 1001.8 |
| 20260508201306 | 77 | 233 | 0.0 | 3.0 | 0.00 | 0.01 | 0.01 | 81 | 1001.8 |
| 20260508201207 | 77 | 333 | 1.0 | 3.0 | 0.00 | 0.01 | 0.01 | 82 | 1001.9 |
| 20260508201112 | 77 | 330 | 1.0 | 3.0 | 0.00 | 0.01 | 0.01 | 82 | 1001.8 |
| 20260508201008 | 77 | 92 | 1.0 | 2.0 | 0.00 | 0.01 | 0.01 | 82 | 1001.9 |
| 20260508200908 | 77 | 92 | 1.0 | 2.0 | 0.00 | 0.01 | 0.01 | 82 | 1001.8 |
| 20260508200806 | 77 | 93 | 0.0 | 2.0 | 0.00 | 0.01 | 0.01 | 82 | 1001.8 |
| 20260508200707 | 77 | 93 | 0.0 | 2.0 | 0.00 | 0.01 | 0.01 | 82 | 1001.9 |
| 20260508200606 | 77 | 94 | 0.0 | 2.0 | 0.00 | 0.01 | 0.01 | 82 | 1001.9 |
| 20260508200506 | 77 | 90 | 0.0 | 2.0 | 0.00 | 0.01 | 0.01 | 82 | 1001.8 |
| 20260508200406 | 76 | 90 | 0.0 | 2.0 | 0.00 | 0.01 | 0.01 | 82 | 1001.8 |
| 20260508200306 | 76 | 90 | 0.0 | 2.0 | 0.00 | 0.01 | 0.01 | 82 | 1001.8 |
| 20260508200207 | 76 | 90 | 0.0 | 2.0 | 0.00 | 0.01 | 0.01 | 82 | 1001.9 |
| 20260508200108 | 76 | 212 | 0.0 | 1.0 | 0.00 | 0.01 | 0.01 | 82 | 1001.9 |
| 20260508200008 | 76 | 212 | 0.0 | 1.0 | 0.00 | 0.01 | 0.01 | 81 | 1001.9 |
| 20260508195908 | 76 | 212 | 0.0 | 1.0 | 0.00 | 0.01 | 0.01 | 82 | 1001.9 |
| 20260508195807 | 77 | 212 | 0.0 | 1.0 | 0.00 | 0.01 | 0.01 | 82 | 1002.0 |
| 20260508195706 | 77 | 212 | 0.0 | 1.0 | 0.00 | 0.01 | 0.01 | 82 | 1002.0 |
| 20260508195606 | 77 | 212 | 0.0 | 1.0 | 0.00 | 0.01 | 0.01 | 82 | 1002.0 |
| 20260508195506 | 77 | 212 | 0.0 | 1.0 | 0.00 | 0.01 | 0.01 | 82 | 1001.9 |
| 20260508195406 | 76 | 216 | 0.0 | 0.0 | 0.00 | 0.01 | 0.01 | 82 | 1002.0 |
| 20260508195306 | 76 | 216 | 0.0 | 0.0 | 0.00 | 0.01 | 0.01 | 82 | 1001.9 |
| 20260508195208 | 77 | 216 | 0.0 | 0.0 | 0.00 | 0.01 | 0.01 | 82 | 1002.0 |
| 20260508195106 | 76 | 216 | 0.0 | 0.0 | 0.00 | 0.01 | 0.01 | 82 | 1002.0 |
| 20260508195006 | 76 | 216 | 0.0 | 0.0 | 0.00 | 0.01 | 0.01 | 82 | 1002.1 |
| 20260508194906 | 76 | 216 | 0.0 | 0.0 | 0.00 | 0.01 | 0.01 | 83 | 1002.1 |
| 20260508194806 | 76 | 216 | 0.0 | 0.0 | 0.00 | 0.01 | 0.01 | 83 | 1002.1 |
| 20260508194708 | 76 | 216 | 0.0 | 0.0 | 0.00 | 0.01 | 0.01 | 82 | 1002.2 |
| 20260508194606 | 76 | 216 | 0.0 | 0.0 | 0.00 | 0.01 | 0.01 | 82 | 1002.2 |
| 20260508194507 | 76 | 216 | 0.0 | 0.0 | 0.00 | 0.01 | 0.01 | 82 | 1002.2 |
| 20260508194407 | 76 | 216 | 0.0 | 0.0 | 0.00 | 0.01 | 0.01 | 83 | 1002.2 |
| 20260508194306 | 76 | 216 | 0.0 | 0.0 | 0.00 | 0.01 | 0.01 | 83 | 1002.2 |
| 20260508194205 | 76 | 216 | 0.0 | 0.0 | 0.00 | 0.01 | 0.01 | 82 | 1002.2 |
| 20260508194107 | 76 | 216 | 0.0 | 0.0 | 0.00 | 0.01 | 0.01 | 82 | 1002.1 |
| 20260508194006 | 76 | 216 | 0.0 | 1.0 | 0.00 | 0.01 | 0.01 | 82 | 1002.1 |
| 20260508193907 | 76 | 216 | 0.0 | 1.0 | 0.00 | 0.01 | 0.01 | 82 | 1002.2 |
| 20260508193805 | 76 | 216 | 0.0 | 1.0 | 0.00 | 0.01 | 0.01 | 82 | 1002.2 |
| 20260508193707 | 76 | 216 | 0.0 | 1.0 | 0.00 | 0.01 | 0.01 | 82 | 1002.2 |
| 20260508193606 | 76 | 216 | 0.0 | 1.0 | 0.00 | 0.01 | 0.01 | 82 | 1002.3 |
| 20260508193506 | 76 | 216 | 0.0 | 1.0 | 0.00 | 0.01 | 0.01 | 82 | 1002.4 |
| 20260508193405 | 76 | 216 | 0.0 | 1.0 | 0.00 | 0.01 | 0.01 | 82 | 1002.4 |
| 20260508193305 | 76 | 216 | 0.0 | 1.0 | 0.00 | 0.01 | 0.01 | 82 | 1002.5 |
| 20260508193205 | 76 | 216 | 0.0 | 1.0 | 0.00 | 0.01 | 0.01 | 82 | 1002.5 |
| 20260508193107 | 76 | 216 | 0.0 | 1.0 | 0.00 | 0.01 | 0.01 | 82 | 1002.5 |
| 20260508193005 | 76 | 214 | 0.0 | 1.0 | 0.00 | 0.01 | 0.01 | 82 | 1002.4 |
| 20260508192906 | 76 | 216 | 0.0 | 0.0 | 0.00 | 0.01 | 0.01 | 83 | 1002.4 |
| 20260508192805 | 76 | 216 | 0.0 | 1.0 | 0.00 | 0.01 | 0.01 | 83 | 1002.4 |
| 20260508192705 | 76 | 216 | 0.0 | 1.0 | 0.00 | 0.01 | 0.01 | 83 | 1002.3 |
| 20260508192607 | 76 | 216 | 0.0 | 1.0 | 0.00 | 0.01 | 0.01 | 82 | 1002.3 |
| 20260508192506 | 76 | 216 | 0.0 | 1.0 | 0.00 | 0.01 | 0.01 | 82 | 1002.3 |
| 20260508192406 | 76 | 216 | 0.0 | 2.0 | 0.00 | 0.01 | 0.01 | 82 | 1002.3 |
| 20260508192306 | 76 | 216 | 0.0 | 2.0 | 0.00 | 0.01 | 0.01 | 82 | 1002.3 |
| 20260508192207 | 76 | 214 | 0.0 | 2.0 | 0.00 | 0.01 | 0.01 | 82 | 1002.3 |
| 20260508192105 | 76 | 214 | 0.0 | 2.0 | 0.00 | 0.01 | 0.01 | 82 | 1002.3 |
| 20260508192006 | 76 | 214 | 0.0 | 2.0 | 0.00 | 0.01 | 0.01 | 82 | 1002.3 |
| 20260508191905 | 76 | 214 | 0.0 | 2.0 | 0.00 | 0.01 | 0.01 | 82 | 1002.4 |
| 20260508191805 | 76 | 221 | 0.0 | 2.0 | 0.00 | 0.01 | 0.01 | 82 | 1002.5 |
| 20260508191706 | 76 | 221 | 0.0 | 2.0 | 0.00 | 0.01 | 0.01 | 82 | 1002.5 |
| 20260508191605 | 76 | 331 | 1.0 | 2.0 | 0.00 | 0.01 | 0.01 | 82 | 1002.4 |
| 20260508191505 | 76 | 330 | 1.0 | 2.0 | 0.00 | 0.01 | 0.01 | 82 | 1002.5 |
| 20260508191406 | 76 | 330 | 0.0 | 2.0 | 0.00 | 0.01 | 0.01 | 82 | 1002.5 |
| 20260508191306 | 76 | 327 | 0.0 | 2.0 | 0.00 | 0.01 | 0.01 | 82 | 1002.5 |
| 20260508191213 | 76 | 327 | 0.0 | 2.0 | 0.00 | 0.01 | 0.01 | 81 | 1002.5 |
| 20260508191105 | 76 | 327 | 1.0 | 2.0 | 0.00 | 0.01 | 0.01 | 81 | 1002.6 |
| 20260508191005 | 76 | 338 | 0.0 | 2.0 | 0.00 | 0.01 | 0.01 | 81 | 1002.5 |
| 20260508190905 | 76 | 144 | 0.0 | 2.0 | 0.00 | 0.01 | 0.01 | 81 | 1002.5 |
| 20260508190805 | 76 | 144 | 0.0 | 2.0 | 0.00 | 0.01 | 0.01 | 81 | 1002.5 |
| 20260508190707 | 76 | 144 | 0.0 | 2.0 | 0.00 | 0.01 | 0.01 | 81 | 1002.6 |
| 20260508190605 | 76 | 144 | 0.0 | 2.0 | 0.00 | 0.01 | 0.01 | 82 | 1002.6 |
| 20260508190505 | 76 | 144 | 0.0 | 2.0 | 0.00 | 0.01 | 0.01 | 82 | 1002.6 |
| 20260508190405 | 76 | 144 | 0.0 | 2.0 | 0.00 | 0.01 | 0.01 | 82 | 1002.7 |
| 20260508190305 | 76 | 144 | 0.0 | 2.0 | 0.00 | 0.01 | 0.01 | 82 | 1002.7 |
| 20260508190205 | 76 | 144 | 0.0 | 2.0 | 0.00 | 0.01 | 0.01 | 82 | 1002.8 |
| 20260508190107 | 76 | 144 | 0.0 | 2.0 | 0.00 | 0.01 | 0.01 | 82 | 1002.8 |
| 20260508190006 | 76 | 104 | 0.0 | 1.0 | 0.00 | 0.01 | 0.01 | 82 | 1002.8 |
| 20260508185905 | 76 | 104 | 0.0 | 1.0 | 0.00 | 0.01 | 0.01 | 82 | 1002.7 |
| 20260508185805 | 76 | 104 | 0.0 | 1.0 | 0.00 | 0.01 | 0.01 | 82 | 1002.7 |
| 20260508185704 | 76 | 104 | 0.0 | 1.0 | 0.00 | 0.01 | 0.01 | 82 | 1002.7 |
| 20260508185605 | 76 | 104 | 0.0 | 1.0 | 0.00 | 0.01 | 0.01 | 82 | 1002.7 |
| 20260508185505 | 76 | 104 | 0.0 | 2.0 | 0.00 | 0.01 | 0.01 | 82 | 1002.6 |
| 20260508185404 | 76 | 104 | 0.0 | 2.0 | 0.00 | 0.01 | 0.01 | 82 | 1002.7 |
| 20260508185306 | 76 | 104 | 0.0 | 2.0 | 0.00 | 0.01 | 0.01 | 82 | 1002.8 |
| 20260508185205 | 76 | 104 | 0.0 | 2.0 | 0.00 | 0.01 | 0.01 | 82 | 1002.7 |
| 20260508185105 | 76 | 104 | 0.0 | 2.0 | 0.00 | 0.01 | 0.01 | 82 | 1002.7 |
| 20260508185005 | 76 | 104 | 0.0 | 2.0 | 0.00 | 0.01 | 0.01 | 81 | 1002.8 |
| 20260508184904 | 76 | 111 | 0.0 | 2.0 | 0.00 | 0.01 | 0.01 | 81 | 1002.7 |
| 20260508184805 | 76 | 140 | 0.0 | 2.0 | 0.00 | 0.01 | 0.01 | 81 | 1002.6 |
| 20260508184705 | 76 | 140 | 1.0 | 2.0 | 0.00 | 0.01 | 0.01 | 81 | 1002.6 |
| 20260508184605 | 76 | 140 | 1.0 | 2.0 | 0.00 | 0.01 | 0.01 | 81 | 1002.6 |
| 20260508184505 | 76 | 140 | 0.0 | 2.0 | 0.00 | 0.01 | 0.01 | 81 | 1002.6 |
| 20260508184404 | 76 | 140 | 0.0 | 2.0 | 0.00 | 0.01 | 0.01 | 81 | 1002.6 |
| 20260508184305 | 76 | 140 | 1.0 | 2.0 | 0.00 | 0.01 | 0.01 | 81 | 1002.6 |
| 20260508184204 | 76 | 128 | 1.0 | 2.0 | 0.00 | 0.01 | 0.01 | 81 | 1002.6 |
| 20260508184104 | 76 | 125 | 0.0 | 2.0 | 0.00 | 0.01 | 0.01 | 81 | 1002.6 |
| 20260508184004 | 76 | 336 | 0.0 | 2.0 | 0.00 | 0.01 | 0.01 | 81 | 1002.6 |
| 20260508183904 | 76 | 336 | 0.0 | 2.0 | 0.00 | 0.01 | 0.01 | 81 | 1002.6 |
| 20260508183804 | 76 | 336 | 1.0 | 2.0 | 0.00 | 0.01 | 0.01 | 81 | 1002.7 |
| 20260508183704 | 76 | 336 | 1.0 | 2.0 | 0.00 | 0.01 | 0.01 | 81 | 1002.7 |
| 20260508183604 | 76 | 334 | 0.0 | 1.0 | 0.00 | 0.01 | 0.01 | 81 | 1002.8 |
| 20260508183504 | 76 | 334 | 0.0 | 1.0 | 0.00 | 0.01 | 0.01 | 81 | 1002.8 |
| 20260508183404 | 76 | 334 | 0.0 | 1.0 | 0.00 | 0.01 | 0.01 | 81 | 1002.8 |
| 20260508183304 | 76 | 334 | 0.0 | 1.0 | 0.00 | 0.01 | 0.01 | 81 | 1002.8 |
| 20260508183206 | 76 | 286 | 0.0 | 1.0 | 0.00 | 0.01 | 0.01 | 81 | 1002.9 |
| 20260508183104 | 76 | 286 | 0.0 | 1.0 | 0.00 | 0.01 | 0.01 | 81 | 1002.9 |
| 20260508183004 | 76 | 286 | 0.0 | 1.0 | 0.00 | 0.01 | 0.01 | 81 | 1002.9 |
| 20260508182904 | 75 | 286 | 0.0 | 1.0 | 0.00 | 0.01 | 0.01 | 81 | 1002.9 |
| 20260508182804 | 75 | 286 | 0.0 | 1.0 | 0.00 | 0.01 | 0.01 | 81 | 1002.9 |
| 20260508182707 | 75 | 286 | 0.0 | 1.0 | 0.00 | 0.01 | 0.01 | 82 | 1002.8 |
| 20260508182603 | 75 | 286 | 0.0 | 1.0 | 0.00 | 0.01 | 0.01 | 82 | 1002.9 |
| 20260508182505 | 75 | 286 | 0.0 | 1.0 | 0.00 | 0.01 | 0.01 | 81 | 1003.0 |
| 20260508182404 | 75 | 286 | 0.0 | 1.0 | 0.00 | 0.01 | 0.01 | 81 | 1003.0 |
| 20260508182306 | 75 | 286 | 0.0 | 1.0 | 0.00 | 0.01 | 0.01 | 81 | 1003.0 |
| 20260508182204 | 75 | 286 | 0.0 | 2.0 | 0.00 | 0.01 | 0.01 | 81 | 1003.0 |
| 20260508182105 | 75 | 286 | 0.0 | 2.0 | 0.00 | 0.01 | 0.01 | 81 | 1003.1 |
| 20260508182003 | 75 | 286 | 0.0 | 2.0 | 0.00 | 0.01 | 0.01 | 81 | 1003.0 |
| 20260508181904 | 75 | 286 | 0.0 | 2.0 | 0.00 | 0.01 | 0.01 | 81 | 1003.1 |
| 20260508181804 | 75 | 286 | 0.0 | 2.0 | 0.00 | 0.01 | 0.01 | 81 | 1003.1 |
| 20260508181703 | 75 | 298 | 0.0 | 2.0 | 0.00 | 0.01 | 0.01 | 81 | 1003.0 |
| 20260508181604 | 75 | 298 | 0.0 | 2.0 | 0.00 | 0.01 | 0.01 | 81 | 1003.0 |
| 20260508181504 | 75 | 298 | 0.0 | 2.0 | 0.00 | 0.01 | 0.01 | 81 | 1002.9 |
| 20260508181405 | 75 | 298 | 1.0 | 2.0 | 0.00 | 0.01 | 0.01 | 81 | 1002.9 |
| 20260508181304 | 75 | 298 | 1.0 | 2.0 | 0.00 | 0.01 | 0.01 | 81 | 1003.0 |
| 20260508181203 | 75 | 337 | 0.0 | 2.0 | 0.00 | 0.01 | 0.01 | 81 | 1002.9 |
| 20260508181109 | 75 | 329 | 0.0 | 2.0 | 0.00 | 0.01 | 0.01 | 81 | 1002.9 |
| 20260508181004 | 75 | 329 | 0.0 | 2.0 | 0.00 | 0.01 | 0.01 | 81 | 1002.9 |
| 20260508180903 | 75 | 329 | 0.0 | 2.0 | 0.00 | 0.01 | 0.01 | 81 | 1002.9 |
| 20260508180803 | 75 | 0 | 0.0 | 1.0 | 0.00 | 0.01 | 0.01 | 81 | 1002.9 |
| 20260508180704 | 75 | 0 | 0.0 | 1.0 | 0.00 | 0.01 | 0.01 | 81 | 1002.8 |
| 20260508180605 | 75 | 0 | 0.0 | 1.0 | 0.00 | 0.01 | 0.01 | 82 | 1002.8 |
| 20260508180503 | 75 | 4 | 0.0 | 1.0 | 0.00 | 0.01 | 0.01 | 82 | 1002.8 |
| 20260508180404 | 75 | 4 | 0.0 | 1.0 | 0.00 | 0.01 | 0.01 | 81 | 1002.8 |
| 20260508180304 | 74 | 4 | 0.0 | 1.0 | 0.00 | 0.01 | 0.01 | 82 | 1002.8 |
| 20260508180203 | 74 | 18 | 0.0 | 1.0 | 0.00 | 0.01 | 0.01 | 82 | 1002.9 |
| 20260508180103 | 74 | 279 | 0.0 | 1.0 | 0.00 | 0.01 | 0.01 | 83 | 1002.9 |
| 20260508180005 | 74 | 278 | 0.0 | 1.0 | 0.00 | 0.01 | 0.01 | 83 | 1003.1 |
| 20260508175904 | 74 | 281 | 0.0 | 1.0 | 0.00 | 0.01 | 0.01 | 83 | 1003.1 |
| 20260508175804 | 74 | 281 | 0.0 | 1.0 | 0.00 | 0.01 | 0.01 | 83 | 1003.1 |
| 20260508175703 | 74 | 281 | 0.0 | 1.0 | 0.00 | 0.01 | 0.01 | 83 | 1003.1 |
| 20260508175603 | 73 | 281 | 0.0 | 1.0 | 0.00 | 0.01 | 0.01 | 83 | 1003.1 |
| 20260508175505 | 73 | 90 | 0.0 | 0.0 | 0.00 | 0.01 | 0.01 | 83 | 1003.1 |
| 20260508175403 | 73 | 90 | 0.0 | 0.0 | 0.00 | 0.01 | 0.01 | 83 | 1003.1 |
| 20260508175306 | 73 | 157 | 0.0 | 0.0 | 0.00 | 0.01 | 0.01 | 83 | 1003.1 |
| 20260508175204 | 73 | 157 | 0.0 | 0.0 | 0.00 | 0.01 | 0.01 | 83 | 1003.2 |
| 20260508175103 | 73 | 157 | 0.0 | 0.0 | 0.00 | 0.01 | 0.01 | 83 | 1003.2 |
| 20260508175004 | 73 | 157 | 0.0 | 0.0 | 0.00 | 0.01 | 0.01 | 83 | 1003.2 |
| 20260508174904 | 73 | 157 | 0.0 | 0.0 | 0.00 | 0.01 | 0.01 | 83 | 1003.2 |
| 20260508174803 | 73 | 157 | 0.0 | 0.0 | 0.00 | 0.01 | 0.01 | 83 | 1003.3 |
| 20260508174705 | 73 | 157 | 0.0 | 0.0 | 0.00 | 0.01 | 0.01 | 83 | 1003.3 |
| 20260508174603 | 73 | 157 | 0.0 | 0.0 | 0.00 | 0.01 | 0.01 | 83 | 1003.4 |
| 20260508174505 | 73 | 157 | 0.0 | 0.0 | 0.00 | 0.01 | 0.01 | 83 | 1003.4 |
| 20260508174403 | 73 | 157 | 0.0 | 0.0 | 0.00 | 0.01 | 0.01 | 83 | 1003.6 |
| 20260508174303 | 73 | 157 | 0.0 | 0.0 | 0.00 | 0.01 | 0.01 | 83 | 1003.5 |
| 20260508174204 | 73 | 157 | 0.0 | 0.0 | 0.00 | 0.01 | 0.01 | 83 | 1003.7 |
| 20260508174103 | 73 | 157 | 0.0 | 0.0 | 0.00 | 0.01 | 0.01 | 83 | 1003.7 |
| 20260508174006 | 73 | 157 | 0.0 | 2.0 | 0.00 | 0.01 | 0.01 | 83 | 1003.7 |
| 20260508173903 | 73 | 157 | 0.0 | 2.0 | 0.00 | 0.01 | 0.01 | 83 | 1003.6 |
| 20260508173804 | 73 | 157 | 0.0 | 2.0 | 0.00 | 0.01 | 0.01 | 83 | 1003.6 |
| 20260508173704 | 73 | 157 | 0.0 | 2.0 | 0.00 | 0.01 | 0.01 | 83 | 1003.7 |
| 20260508173603 | 73 | 157 | 0.0 | 2.0 | 0.00 | 0.01 | 0.01 | 83 | 1003.7 |
| 20260508173505 | 73 | 157 | 0.0 | 2.0 | 0.00 | 0.01 | 0.01 | 83 | 1003.8 |
| 20260508173404 | 73 | 157 | 0.0 | 2.0 | 0.00 | 0.01 | 0.01 | 83 | 1003.8 |
| 20260508173303 | 73 | 157 | 0.0 | 2.0 | 0.00 | 0.01 | 0.01 | 83 | 1003.8 |
| 20260508173203 | 73 | 157 | 0.0 | 2.0 | 0.00 | 0.01 | 0.01 | 83 | 1003.8 |
| 20260508173103 | 73 | 157 | 0.0 | 2.0 | 0.00 | 0.01 | 0.01 | 83 | 1003.8 |
| 20260508173003 | 73 | 262 | 0.0 | 1.0 | 0.00 | 0.01 | 0.01 | 83 | 1003.8 |
| 20260508172904 | 72 | 262 | 0.0 | 1.0 | 0.00 | 0.01 | 0.01 | 83 | 1003.9 |
| 20260508172803 | 72 | 262 | 0.0 | 1.0 | 0.00 | 0.01 | 0.01 | 82 | 1003.9 |
| 20260508172704 | 72 | 262 | 0.0 | 1.0 | 0.00 | 0.01 | 0.01 | 82 | 1003.8 |
| 20260508172606 | 72 | 262 | 0.0 | 1.0 | 0.00 | 0.01 | 0.01 | 82 | 1003.9 |
| 20260508172503 | 72 | 262 | 0.0 | 1.0 | 0.00 | 0.01 | 0.01 | 82 | 1003.9 |
| 20260508172401 | 72 | 262 | 0.0 | 1.0 | 0.00 | 0.01 | 0.01 | 82 | 1003.9 |
| 20260508172307 | 72 | 262 | 0.0 | 1.0 | 0.00 | 0.01 | 0.01 | 82 | 1003.9 |
| 20260508172202 | 72 | 262 | 0.0 | 0.0 | 0.00 | 0.01 | 0.01 | 82 | 1003.9 |
| 20260508172105 | 73 | 262 | 0.0 | 0.0 | 0.00 | 0.01 | 0.01 | 82 | 1003.9 |
| 20260508172005 | 73 | 262 | 0.0 | 0.0 | 0.00 | 0.01 | 0.01 | 82 | 1003.9 |
| 20260508171902 | 73 | 262 | 0.0 | 0.0 | 0.00 | 0.01 | 0.01 | 82 | 1004.0 |
| 20260508171803 | 73 | 262 | 0.0 | 0.0 | 0.00 | 0.01 | 0.01 | 82 | 1004.0 |
| 20260508171702 | 73 | 262 | 0.0 | 0.0 | 0.00 | 0.01 | 0.01 | 83 | 1004.0 |
| 20260508171604 | 73 | 262 | 0.0 | 0.0 | 0.00 | 0.01 | 0.01 | 83 | 1003.9 |
| 20260508171505 | 73 | 262 | 0.0 | 0.0 | 0.00 | 0.01 | 0.01 | 83 | 1003.8 |
| 20260508171358 | 73 | 262 | 0.0 | 0.0 | 0.00 | 0.01 | 0.01 | 83 | 1003.8 |
| 20260508171259 | 73 | 262 | 0.0 | 0.0 | 0.00 | 0.01 | 0.01 | 83 | 1003.9 |
| 20260508171159 | 73 | 262 | 0.0 | 0.0 | 0.00 | 0.01 | 0.01 | 82 | 1003.7 |
| 20260508171056 | 73 | 262 | 0.0 | 0.0 | 0.00 | 0.01 | 0.01 | 82 | 1003.8 |
| 20260508170952 | 73 | 262 | 0.0 | 1.0 | 0.00 | 0.01 | 0.01 | 82 | 1003.7 |
| 20260508170851 | 72 | 262 | 0.0 | 1.0 | 0.00 | 0.01 | 0.01 | 82 | 1003.7 |
| 20260508170746 | 72 | 262 | 0.0 | 2.0 | 0.00 | 0.01 | 0.01 | 82 | 1003.8 |
| 20260508170641 | 72 | 262 | 0.0 | 2.0 | 0.00 | 0.01 | 0.01 | 82 | 1003.8 |
| 20260508170534 | 73 | 262 | 0.0 | 2.0 | 0.00 | 0.01 | 0.01 | 82 | 1003.7 |
| 20260508170431 | 73 | 262 | 0.0 | 2.0 | 0.00 | 0.01 | 0.01 | 82 | 1003.7 |
| 20260508170332 | 73 | 262 | 0.0 | 2.0 | 0.00 | 0.01 | 0.01 | 82 | 1003.7 |
| 20260508170230 | 73 | 262 | 0.0 | 2.0 | 0.00 | 0.01 | 0.01 | 82 | 1003.8 |
| 20260508170127 | 73 | 262 | 0.0 | 2.0 | 0.00 | 0.01 | 0.01 | 82 | 1003.8 |
| 20260508170028 | 73 | 262 | 0.0 | 2.0 | 0.00 | 0.01 | 0.01 | 82 | 1003.8 |
| 20260508165923 | 73 | 262 | 0.0 | 2.0 | 0.00 | 0.01 | 0.01 | 82 | 1003.7 |
| 20260508165820 | 73 | 262 | 0.0 | 2.0 | 0.00 | 0.01 | 0.01 | 82 | 1003.7 |
| 20260508165720 | 73 | 257 | 0.0 | 1.0 | 0.00 | 0.01 | 0.01 | 82 | 1003.7 |
| 20260508165617 | 73 | 178 | 0.0 | 1.0 | 0.00 | 0.01 | 0.01 | 82 | 1003.6 |
| 20260508165516 | 73 | 178 | 0.0 | 1.0 | 0.00 | 0.01 | 0.01 | 82 | 1003.6 |
| 20260508165417 | 73 | 178 | 0.0 | 1.0 | 0.00 | 0.01 | 0.01 | 82 | 1003.7 |
| 20260508165317 | 73 | 176 | 0.0 | 1.0 | 0.00 | 0.01 | 0.01 | 82 | 1003.6 |
| 20260508165215 | 73 | 176 | 0.0 | 2.0 | 0.00 | 0.01 | 0.01 | 82 | 1003.6 |
| 20260508165115 | 73 | 176 | 0.0 | 2.0 | 0.00 | 0.01 | 0.01 | 82 | 1003.5 |
| 20260508165011 | 73 | 176 | 0.0 | 2.0 | 0.00 | 0.01 | 0.01 | 82 | 1003.5 |
| 20260508164904 | 73 | 176 | 0.0 | 2.0 | 0.00 | 0.01 | 0.01 | 82 | 1003.6 |
| 20260508164805 | 73 | 176 | 0.0 | 2.0 | 0.00 | 0.01 | 0.01 | 82 | 1003.6 |
| 20260508164702 | 73 | 209 | 0.0 | 2.0 | 0.00 | 0.01 | 0.01 | 82 | 1003.8 |
| 20260508164601 | 73 | 209 | 0.0 | 2.0 | 0.00 | 0.01 | 0.01 | 82 | 1003.8 |
| 20260508164504 | 73 | 209 | 0.0 | 2.0 | 0.00 | 0.01 | 0.01 | 82 | 1003.8 |
| 20260508164404 | 73 | 209 | 1.0 | 2.0 | 0.00 | 0.01 | 0.01 | 82 | 1003.9 |
| 20260508164303 | 73 | 209 | 0.0 | 2.0 | 0.00 | 0.01 | 0.01 | 82 | 1004.0 |
| 20260508164202 | 73 | 209 | 0.0 | 2.0 | 0.00 | 0.01 | 0.01 | 82 | 1004.0 |
| 20260508164103 | 73 | 209 | 0.0 | 2.0 | 0.00 | 0.01 | 0.01 | 82 | 1003.9 |
| 20260508163957 | 73 | 37 | 0.0 | 2.0 | 0.00 | 0.01 | 0.01 | 82 | 1004.0 |
| 20260508163853 | 72 | 35 | 0.0 | 2.0 | 0.00 | 0.01 | 0.01 | 82 | 1003.9 |
| 20260508163752 | 72 | 34 | 0.0 | 2.0 | 0.00 | 0.01 | 0.01 | 82 | 1004.0 |
| 20260508163647 | 72 | 37 | 0.0 | 2.0 | 0.00 | 0.01 | 0.01 | 82 | 1003.9 |
| 20260508163538 | 72 | 31 | 0.0 | 2.0 | 0.00 | 0.01 | 0.01 | 82 | 1003.9 |
| 20260508163433 | 72 | 28 | 0.0 | 2.0 | 0.00 | 0.01 | 0.01 | 82 | 1004.0 |
| 20260508163331 | 72 | 65 | 0.0 | 2.0 | 0.00 | 0.01 | 0.01 | 82 | 1004.0 |
| 20260508163230 | 73 | 63 | 0.0 | 2.0 | 0.00 | 0.01 | 0.01 | 82 | 1003.9 |
| 20260508163132 | 73 | 69 | 0.0 | 2.0 | 0.00 | 0.01 | 0.01 | 82 | 1003.9 |
| 20260508163038 | 72 | 17 | 0.0 | 2.0 | 0.00 | 0.01 | 0.01 | 82 | 1003.9 |
| 20260508162932 | 73 | 303 | 0.0 | 2.0 | 0.00 | 0.01 | 0.01 | 82 | 1003.9 |
| 20260508162831 | 72 | 303 | 0.0 | 2.0 | 0.00 | 0.01 | 0.01 | 82 | 1003.9 |
| 20260508162732 | 72 | 303 | 0.0 | 2.0 | 0.00 | 0.01 | 0.01 | 82 | 1004.0 |
| 20260508162633 | 72 | 303 | 0.0 | 2.0 | 0.00 | 0.01 | 0.01 | 82 | 1004.0 |
| 20260508162536 | 72 | 303 | 0.0 | 2.0 | 0.00 | 0.01 | 0.01 | 82 | 1004.0 |
| 20260508162417 | 72 | 303 | 0.0 | 2.0 | 0.00 | 0.01 | 0.01 | 82 | 1004.2 |
| 20260508162316 | 72 | 300 | 0.0 | 0.0 | 0.00 | 0.01 | 0.01 | 82 | 1004.2 |
| 20260508162210 | 72 | 326 | 0.0 | 0.0 | 0.00 | 0.01 | 0.01 | 82 | 1004.2 |
| 20260508162111 | 72 | 326 | 0.0 | 0.0 | 0.00 | 0.01 | 0.01 | 82 | 1004.3 |
| 20260508162008 | 72 | 324 | 0.0 | 1.0 | 0.00 | 0.01 | 0.01 | 81 | 1004.2 |
| 20260508161904 | 72 | 326 | 0.0 | 1.0 | 0.00 | 0.01 | 0.01 | 82 | 1004.2 |
| 20260508161803 | 72 | 285 | 0.0 | 1.0 | 0.00 | 0.01 | 0.01 | 82 | 1004.2 |
| 20260508161704 | 72 | 285 | 0.0 | 1.0 | 0.00 | 0.01 | 0.01 | 82 | 1004.2 |
| 20260508161602 | 72 | 290 | 0.0 | 2.0 | 0.00 | 0.01 | 0.01 | 82 | 1004.2 |
| 20260508161504 | 72 | 290 | 0.0 | 2.0 | 0.00 | 0.01 | 0.01 | 82 | 1004.1 |
| 20260508161402 | 72 | 290 | 0.0 | 2.0 | 0.00 | 0.01 | 0.01 | 82 | 1004.0 |
| 20260508161303 | 72 | 290 | 0.0 | 2.0 | 0.00 | 0.01 | 0.01 | 82 | 1004.0 |
| 20260508161205 | 72 | 290 | 0.0 | 2.0 | 0.00 | 0.01 | 0.01 | 82 | 1003.9 |
| 20260508161102 | 72 | 290 | 0.0 | 2.0 | 0.00 | 0.01 | 0.01 | 83 | 1003.9 |
| 20260508161003 | 72 | 124 | 0.0 | 2.0 | 0.00 | 0.01 | 0.01 | 83 | 1004.0 |
| 20260508160902 | 71 | 121 | 0.0 | 2.0 | 0.00 | 0.01 | 0.01 | 83 | 1004.0 |
| 20260508160803 | 71 | 121 | 0.0 | 2.0 | 0.00 | 0.01 | 0.01 | 83 | 1004.0 |
| 20260508160702 | 71 | 121 | 0.0 | 2.0 | 0.00 | 0.01 | 0.01 | 83 | 1004.0 |
| 20260508160603 | 71 | 319 | 0.0 | 2.0 | 0.00 | 0.01 | 0.01 | 83 | 1004.1 |
| 20260508160503 | 71 | 319 | 0.0 | 2.0 | 0.00 | 0.01 | 0.01 | 83 | 1004.1 |
| 20260508160404 | 71 | 319 | 0.0 | 2.0 | 0.00 | 0.01 | 0.01 | 82 | 1004.1 |
| 20260508160303 | 71 | 319 | 1.0 | 2.0 | 0.00 | 0.01 | 0.01 | 83 | 1004.1 |
| 20260508160202 | 71 | 319 | 1.0 | 2.0 | 0.00 | 0.01 | 0.01 | 83 | 1004.0 |
| 20260508160004 | 71 | 68 | 0.0 | 2.0 | 0.00 | 0.01 | 0.01 | 82 | 1003.9 |
| 20260508155903 | 71 | 68 | 0.0 | 2.0 | 0.00 | 0.01 | 0.01 | 82 | 1004.0 |
| 20260508155802 | 71 | 68 | 0.0 | 2.0 | 0.00 | 0.01 | 0.01 | 82 | 1004.0 |
| 20260508155702 | 71 | 85 | 0.0 | 2.0 | 0.00 | 0.01 | 0.01 | 82 | 1004.0 |
| 20260508155603 | 71 | 39 | 0.0 | 2.0 | 0.00 | 0.01 | 0.01 | 82 | 1004.1 |
| 20260508155502 | 71 | 39 | 0.0 | 2.0 | 0.00 | 0.01 | 0.01 | 82 | 1004.1 |
| 20260508155402 | 71 | 39 | 0.0 | 2.0 | 0.00 | 0.01 | 0.01 | 82 | 1004.2 |
| 20260508155305 | 71 | 94 | 0.0 | 2.0 | 0.00 | 0.01 | 0.01 | 82 | 1004.2 |
| 20260508155203 | 71 | 94 | 0.0 | 2.0 | 0.00 | 0.01 | 0.01 | 82 | 1004.1 |
| 20260508155102 | 71 | 93 | 1.0 | 2.0 | 0.00 | 0.01 | 0.01 | 83 | 1004.2 |
| 20260508155002 | 71 | 38 | 0.0 | 2.0 | 0.00 | 0.01 | 0.01 | 82 | 1004.1 |
| 20260508154902 | 71 | 329 | 0.0 | 2.0 | 0.00 | 0.01 | 0.01 | 82 | 1004.1 |
| 20260508154804 | 71 | 329 | 0.0 | 2.0 | 0.00 | 0.01 | 0.01 | 83 | 1004.1 |
| 20260508154702 | 71 | 303 | 0.0 | 3.0 | 0.00 | 0.01 | 0.01 | 83 | 1004.1 |
| 20260508154603 | 71 | 300 | 0.0 | 3.0 | 0.00 | 0.01 | 0.01 | 84 | 1004.1 |
| 20260508154501 | 71 | 300 | 0.0 | 3.0 | 0.00 | 0.01 | 0.01 | 84 | 1004.1 |
| 20260508154403 | 71 | 300 | 0.0 | 3.0 | 0.00 | 0.01 | 0.01 | 84 | 1004.1 |
| 20260508154302 | 71 | 299 | 0.0 | 3.0 | 0.00 | 0.01 | 0.01 | 84 | 1004.2 |
| 20260508154202 | 71 | 299 | 0.0 | 3.0 | 0.00 | 0.01 | 0.01 | 83 | 1004.2 |
| 20260508154101 | 70 | 299 | 0.0 | 3.0 | 0.00 | 0.01 | 0.01 | 83 | 1004.3 |
| 20260508154002 | 70 | 299 | 0.0 | 3.0 | 0.00 | 0.01 | 0.01 | 83 | 1004.3 |
| 20260508153902 | 70 | 299 | 0.0 | 3.0 | 0.00 | 0.01 | 0.01 | 83 | 1004.4 |
| 20260508153802 | 70 | 320 | 0.0 | 3.0 | 0.00 | 0.01 | 0.01 | 83 | 1004.4 |
| 20260508153702 | 70 | 47 | 0.0 | 2.0 | 0.00 | 0.01 | 0.01 | 83 | 1004.4 |
| 20260508153603 | 70 | 307 | 0.0 | 2.0 | 0.00 | 0.01 | 0.01 | 83 | 1004.5 |
| 20260508153502 | 70 | 307 | 0.0 | 2.0 | 0.00 | 0.01 | 0.01 | 83 | 1004.6 |
| 20260508153402 | 70 | 307 | 0.0 | 2.0 | 0.00 | 0.01 | 0.01 | 83 | 1004.5 |
| 20260508153302 | 70 | 307 | 0.0 | 2.0 | 0.00 | 0.01 | 0.01 | 83 | 1004.6 |
| 20260508153202 | 70 | 307 | 0.0 | 2.0 | 0.00 | 0.01 | 0.01 | 84 | 1004.6 |
| 20260508153102 | 70 | 307 | 0.0 | 2.0 | 0.00 | 0.01 | 0.01 | 84 | 1004.7 |
| 20260508153004 | 70 | 180 | 0.0 | 1.0 | 0.00 | 0.01 | 0.01 | 84 | 1004.7 |
| 20260508152902 | 69 | 6 | 0.0 | 1.0 | 0.00 | 0.01 | 0.01 | 84 | 1004.6 |
| 20260508152805 | 69 | 6 | 0.0 | 1.0 | 0.00 | 0.01 | 0.01 | 84 | 1004.7 |
| 20260508152705 | 69 | 162 | 0.0 | 1.0 | 0.00 | 0.01 | 0.01 | 84 | 1004.7 |
| 20260508152602 | 69 | 166 | 0.0 | 1.0 | 0.00 | 0.01 | 0.01 | 85 | 1004.7 |
| 20260508152504 | 69 | 166 | 0.0 | 1.0 | 0.00 | 0.01 | 0.01 | 85 | 1004.7 |
| 20260508152402 | 69 | 72 | 0.0 | 1.0 | 0.00 | 0.01 | 0.01 | 85 | 1004.7 |
| 20260508152305 | 69 | 85 | 0.0 | 1.0 | 0.00 | 0.01 | 0.01 | 85 | 1004.7 |
| 20260508152203 | 69 | 85 | 0.0 | 1.0 | 0.00 | 0.01 | 0.01 | 85 | 1004.7 |
| 20260508152102 | 69 | 47 | 0.0 | 1.0 | 0.00 | 0.01 | 0.01 | 85 | 1004.7 |
| 20260508152004 | 69 | 316 | 0.0 | 1.0 | 0.00 | 0.01 | 0.01 | 86 | 1004.8 |
| 20260508151903 | 69 | 316 | 0.0 | 1.0 | 0.00 | 0.01 | 0.01 | 86 | 1004.7 |
| 20260508151802 | 69 | 316 | 0.0 | 1.0 | 0.00 | 0.01 | 0.01 | 86 | 1004.8 |
| 20260508151702 | 68 | 316 | 0.0 | 1.0 | 0.00 | 0.01 | 0.01 | 86 | 1004.9 |
| 20260508151603 | 68 | 316 | 0.0 | 1.0 | 0.00 | 0.01 | 0.01 | 86 | 1004.9 |
| 20260508151503 | 68 | 316 | 0.0 | 1.0 | 0.00 | 0.01 | 0.01 | 86 | 1004.9 |
| 20260508151402 | 68 | 316 | 0.0 | 1.0 | 0.00 | 0.01 | 0.01 | 86 | 1004.9 |
| 20260508151303 | 68 | 28 | 0.0 | 1.0 | 0.00 | 0.01 | 0.01 | 86 | 1004.9 |
| 20260508151201 | 68 | 25 | 0.0 | 1.0 | 0.00 | 0.01 | 0.01 | 86 | 1004.9 |
| 20260508151100 | 67 | 25 | 0.0 | 1.0 | 0.00 | 0.01 | 0.01 | 86 | 1004.8 |
| 20260508151000 | 67 | 25 | 0.0 | 1.0 | 0.00 | 0.01 | 0.01 | 86 | 1004.8 |
| 20260508150901 | 67 | 25 | 0.0 | 1.0 | 0.00 | 0.01 | 0.01 | 86 | 1004.8 |
| 20260508150801 | 67 | 24 | 0.0 | 1.0 | 0.00 | 0.01 | 0.01 | 86 | 1004.8 |
| 20260508150701 | 67 | 24 | 0.0 | 1.0 | 0.00 | 0.01 | 0.01 | 86 | 1004.8 |
| 20260508150559 | 67 | 24 | 0.0 | 1.0 | 0.00 | 0.01 | 0.01 | 86 | 1004.8 |
| 20260508150501 | 67 | 24 | 0.0 | 1.0 | 0.00 | 0.01 | 0.01 | 86 | 1004.8 |
| 20260508150359 | 67 | 24 | 0.0 | 1.0 | 0.00 | 0.01 | 0.01 | 86 | 1004.9 |
| 20260508150301 | 67 | 24 | 0.0 | 1.0 | 0.00 | 0.01 | 0.01 | 86 | 1004.9 |
| 20260508150159 | 67 | 24 | 0.0 | 1.0 | 0.00 | 0.01 | 0.01 | 86 | 1004.9 |
| 20260508145959 | 67 | 49 | 0.0 | 3.0 | 0.00 | 0.01 | 0.01 | 86 | 1005.0 |
| 20260508145900 | 67 | 49 | 0.0 | 3.0 | 0.00 | 0.01 | 0.01 | 86 | 1005.1 |
| 20260508145759 | 67 | 49 | 0.0 | 3.0 | 0.00 | 0.01 | 0.01 | 86 | 1005.0 |
| 20260508145700 | 67 | 197 | 0.0 | 3.0 | 0.00 | 0.01 | 0.01 | 86 | 1005.0 |
| 20260508145559 | 67 | 200 | 0.0 | 3.0 | 0.00 | 0.01 | 0.01 | 86 | 1005.1 |
| 20260508145500 | 67 | 202 | 0.0 | 3.0 | 0.00 | 0.01 | 0.01 | 86 | 1005.1 |
| 20260508145359 | 67 | 202 | 0.0 | 3.0 | 0.00 | 0.01 | 0.01 | 86 | 1005.1 |
| 20260508145301 | 67 | 203 | 0.0 | 3.0 | 0.00 | 0.01 | 0.01 | 86 | 1005.0 |
| 20260508145159 | 67 | 203 | 0.0 | 3.0 | 0.00 | 0.01 | 0.01 | 86 | 1005.0 |
| 20260508145100 | 67 | 323 | 0.0 | 2.0 | 0.00 | 0.01 | 0.01 | 86 | 1005.1 |
| 20260508145000 | 67 | 323 | 0.0 | 2.0 | 0.00 | 0.01 | 0.01 | 86 | 1005.1 |
| 20260508144859 | 67 | 323 | 0.0 | 2.0 | 0.00 | 0.01 | 0.01 | 86 | 1005.0 |
| 20260508144759 | 67 | 282 | 0.0 | 2.0 | 0.00 | 0.01 | 0.01 | 86 | 1005.1 |
| 20260508144700 | 67 | 282 | 0.0 | 2.0 | 0.00 | 0.01 | 0.01 | 86 | 1005.1 |
| 20260508144600 | 67 | 282 | 0.0 | 2.0 | 0.00 | 0.01 | 0.01 | 86 | 1005.1 |
| 20260508144500 | 67 | 282 | 0.0 | 2.0 | 0.00 | 0.01 | 0.01 | 86 | 1005.2 |
| 20260508144359 | 67 | 306 | 0.0 | 2.0 | 0.00 | 0.01 | 0.01 | 86 | 1005.1 |
| 20260508144301 | 67 | 68 | 0.0 | 1.0 | 0.00 | 0.01 | 0.01 | 86 | 1005.2 |
| 20260508144159 | 67 | 42 | 0.0 | 1.0 | 0.00 | 0.01 | 0.01 | 86 | 1005.2 |
| 20260508144059 | 67 | 0 | 0.0 | 1.0 | 0.00 | 0.01 | 0.01 | 86 | 1005.2 |
| 20260508143959 | 67 | 0 | 0.0 | 1.0 | 0.00 | 0.01 | 0.01 | 86 | 1005.2 |
| 20260508143859 | 67 | 0 | 0.0 | 2.0 | 0.00 | 0.01 | 0.01 | 86 | 1005.1 |
| 20260508143801 | 67 | 0 | 0.0 | 2.0 | 0.00 | 0.01 | 0.01 | 86 | 1005.0 |
| 20260508143701 | 66 | 0 | 0.0 | 2.0 | 0.00 | 0.01 | 0.01 | 86 | 1005.0 |
| 20260508143600 | 66 | 0 | 0.0 | 2.0 | 0.00 | 0.01 | 0.01 | 86 | 1005.0 |
| 20260508143459 | 66 | 0 | 0.0 | 2.0 | 0.00 | 0.01 | 0.01 | 86 | 1005.1 |
| 20260508143359 | 66 | 0 | 0.0 | 2.0 | 0.00 | 0.01 | 0.01 | 86 | 1005.0 |
| 20260508143258 | 66 | 0 | 0.0 | 2.0 | 0.00 | 0.01 | 0.01 | 86 | 1005.1 |
| 20260508143159 | 66 | 0 | 0.0 | 2.0 | 0.00 | 0.01 | 0.01 | 86 | 1005.2 |
| 20260508143059 | 66 | 0 | 0.0 | 2.0 | 0.00 | 0.01 | 0.01 | 86 | 1005.2 |
| 20260508142958 | 66 | 0 | 0.0 | 2.0 | 0.00 | 0.01 | 0.01 | 86 | 1005.2 |
| 20260508142900 | 66 | 312 | 0.0 | 1.0 | 0.00 | 0.01 | 0.01 | 86 | 1005.3 |
| 20260508142758 | 66 | 307 | 0.0 | 1.0 | 0.00 | 0.01 | 0.01 | 86 | 1005.2 |
| 20260508142700 | 66 | 0 | 0.0 | 1.0 | 0.00 | 0.01 | 0.01 | 86 | 1005.1 |
| 20260508142559 | 66 | 173 | 0.0 | 1.0 | 0.00 | 0.01 | 0.01 | 86 | 1005.2 |
| 20260508142458 | 66 | 173 | 0.0 | 1.0 | 0.00 | 0.01 | 0.01 | 86 | 1005.2 |
| 20260508142359 | 66 | 173 | 0.0 | 1.0 | 0.00 | 0.01 | 0.01 | 86 | 1005.1 |
| 20260508142259 | 66 | 206 | 0.0 | 1.0 | 0.00 | 0.01 | 0.01 | 86 | 1005.1 |
| 20260508142158 | 66 | 134 | 0.0 | 1.0 | 0.00 | 0.01 | 0.01 | 86 | 1005.1 |
| 20260508142059 | 66 | 134 | 0.0 | 1.0 | 0.00 | 0.01 | 0.01 | 86 | 1005.2 |
| 20260508141959 | 66 | 134 | 0.0 | 1.0 | 0.00 | 0.01 | 0.01 | 86 | 1005.1 |
| 20260508141859 | 66 | 72 | 0.0 | 1.0 | 0.00 | 0.01 | 0.01 | 86 | 1005.2 |
| 20260508141759 | 66 | 137 | 0.0 | 1.0 | 0.00 | 0.01 | 0.01 | 86 | 1005.2 |
| 20260508141700 | 66 | 79 | 0.0 | 1.0 | 0.00 | 0.01 | 0.01 | 86 | 1005.3 |
| 20260508141559 | 66 | 68 | 0.0 | 1.0 | 0.00 | 0.01 | 0.01 | 86 | 1005.3 |
| 20260508141459 | 66 | 159 | 0.0 | 1.0 | 0.00 | 0.01 | 0.01 | 86 | 1005.3 |
| 20260508141400 | 66 | 159 | 0.0 | 1.0 | 0.00 | 0.01 | 0.01 | 86 | 1005.2 |
| 20260508141300 | 66 | 151 | 0.0 | 1.0 | 0.00 | 0.01 | 0.01 | 86 | 1005.2 |
| 20260508141158 | 66 | 109 | 0.0 | 1.0 | 0.00 | 0.01 | 0.01 | 86 | 1005.2 |
| 20260508141105 | 66 | 109 | 0.0 | 1.0 | 0.00 | 0.01 | 0.01 | 86 | 1005.1 |
| 20260508140958 | 66 | 109 | 0.0 | 1.0 | 0.00 | 0.01 | 0.01 | 86 | 1005.1 |
| 20260508140859 | 66 | 109 | 0.0 | 1.0 | 0.00 | 0.01 | 0.01 | 86 | 1005.2 |
| 20260508140759 | 66 | 109 | 0.0 | 1.0 | 0.00 | 0.01 | 0.01 | 86 | 1005.3 |
| 20260508140659 | 66 | 109 | 0.0 | 1.0 | 0.00 | 0.01 | 0.01 | 86 | 1005.3 |
| 20260508140603 | 66 | 109 | 0.0 | 1.0 | 0.00 | 0.01 | 0.01 | 86 | 1005.2 |
| 20260508140458 | 66 | 109 | 0.0 | 1.0 | 0.00 | 0.01 | 0.01 | 86 | 1005.2 |
| 20260508140359 | 66 | 109 | 0.0 | 1.0 | 0.00 | 0.01 | 0.01 | 86 | 1005.2 |
| 20260508140259 | 66 | 109 | 0.0 | 1.0 | 0.00 | 0.01 | 0.01 | 86 | 1005.2 |
| 20260508140159 | 66 | 110 | 0.0 | 1.0 | 0.00 | 0.01 | 0.01 | 86 | 1005.1 |
| 20260508140100 | 66 | 113 | 0.0 | 1.0 | 0.00 | 0.01 | 0.01 | 86 | 1005.2 |
| 20260508140000 | 66 | 113 | 0.0 | 2.0 | 0.00 | 0.01 | 0.01 | 86 | 1005.2 |
| 20260508135859 | 66 | 113 | 0.0 | 2.0 | 0.00 | 0.01 | 0.01 | 86 | 1005.2 |
| 20260508135758 | 66 | 266 | 0.0 | 2.0 | 0.00 | 0.01 | 0.01 | 86 | 1005.2 |
| 20260508135659 | 66 | 195 | 0.0 | 2.0 | 0.00 | 0.01 | 0.01 | 86 | 1005.2 |
| 20260508135559 | 66 | 195 | 0.0 | 2.0 | 0.00 | 0.01 | 0.01 | 86 | 1005.0 |
| 20260508135458 | 66 | 195 | 0.0 | 2.0 | 0.00 | 0.01 | 0.01 | 86 | 1005.0 |
| 20260508135400 | 66 | 195 | 0.0 | 2.0 | 0.00 | 0.01 | 0.01 | 86 | 1005.0 |
| 20260508135259 | 66 | 190 | 0.0 | 2.0 | 0.00 | 0.01 | 0.01 | 86 | 1005.0 |
| 20260508135200 | 66 | 237 | 0.0 | 2.0 | 0.00 | 0.01 | 0.01 | 86 | 1005.1 |
| 20260508135059 | 66 | 99 | 0.0 | 2.0 | 0.00 | 0.01 | 0.01 | 86 | 1005.0 |
| 20260508134959 | 66 | 59 | 0.0 | 2.0 | 0.00 | 0.01 | 0.01 | 86 | 1005.1 |
| 20260508134858 | 66 | 59 | 0.0 | 2.0 | 0.00 | 0.01 | 0.01 | 86 | 1005.1 |
| 20260508134757 | 66 | 147 | 0.0 | 1.0 | 0.00 | 0.01 | 0.01 | 86 | 1005.1 |
| 20260508134659 | 66 | 147 | 0.0 | 1.0 | 0.00 | 0.01 | 0.01 | 86 | 1005.1 |
| 20260508134559 | 66 | 147 | 0.0 | 1.0 | 0.00 | 0.01 | 0.01 | 86 | 1005.1 |
| 20260508134459 | 66 | 147 | 0.0 | 1.0 | 0.00 | 0.01 | 0.01 | 86 | 1005.2 |
| 20260508134359 | 66 | 206 | 0.0 | 1.0 | 0.00 | 0.01 | 0.01 | 86 | 1005.2 |
| 20260508134259 | 66 | 204 | 0.0 | 1.0 | 0.00 | 0.01 | 0.01 | 86 | 1005.2 |
| 20260508134158 | 66 | 204 | 0.0 | 1.0 | 0.00 | 0.01 | 0.01 | 86 | 1005.2 |
| 20260508134058 | 66 | 204 | 0.0 | 1.0 | 0.00 | 0.01 | 0.01 | 86 | 1005.2 |
| 20260508133957 | 66 | 204 | 0.0 | 1.0 | 0.00 | 0.01 | 0.01 | 86 | 1005.2 |
| 20260508133858 | 66 | 216 | 0.0 | 0.0 | 0.00 | 0.01 | 0.01 | 86 | 1005.2 |
| 20260508133759 | 66 | 216 | 0.0 | 0.0 | 0.00 | 0.01 | 0.01 | 86 | 1005.1 |
| 20260508133701 | 66 | 216 | 0.0 | 0.0 | 0.00 | 0.01 | 0.01 | 85 | 1005.1 |
| 20260508133557 | 66 | 216 | 0.0 | 0.0 | 0.00 | 0.01 | 0.01 | 85 | 1005.1 |
| 20260508133458 | 66 | 216 | 0.0 | 0.0 | 0.00 | 0.01 | 0.01 | 85 | 1005.1 |
| 20260508133359 | 66 | 320 | 0.0 | 0.0 | 0.00 | 0.01 | 0.01 | 85 | 1005.1 |
| 20260508133258 | 66 | 320 | 0.0 | 0.0 | 0.00 | 0.01 | 0.01 | 85 | 1005.0 |
| 20260508133158 | 66 | 320 | 0.0 | 0.0 | 0.00 | 0.01 | 0.01 | 85 | 1005.1 |
| 20260508133059 | 66 | 320 | 0.0 | 0.0 | 0.00 | 0.01 | 0.01 | 85 | 1005.0 |
| 20260508132958 | 66 | 320 | 0.0 | 0.0 | 0.00 | 0.01 | 0.01 | 85 | 1005.1 |
| 20260508132857 | 66 | 320 | 0.0 | 0.0 | 0.00 | 0.01 | 0.01 | 85 | 1005.1 |
| 20260508132759 | 66 | 320 | 0.0 | 0.0 | 0.00 | 0.01 | 0.01 | 85 | 1005.1 |
| 20260508132658 | 66 | 320 | 0.0 | 0.0 | 0.00 | 0.01 | 0.01 | 85 | 1005.0 |
| 20260508132559 | 66 | 320 | 0.0 | 0.0 | 0.00 | 0.01 | 0.01 | 85 | 1005.0 |
| 20260508132458 | 66 | 320 | 0.0 | 0.0 | 0.00 | 0.01 | 0.01 | 85 | 1005.0 |
| 20260508132357 | 66 | 320 | 0.0 | 0.0 | 0.00 | 0.01 | 0.01 | 85 | 1005.0 |
| 20260508132257 | 66 | 320 | 0.0 | 0.0 | 0.00 | 0.01 | 0.01 | 85 | 1005.0 |
| 20260508132159 | 66 | 320 | 0.0 | 0.0 | 0.00 | 0.01 | 0.01 | 85 | 1005.0 |
| 20260508132058 | 66 | 320 | 0.0 | 0.0 | 0.00 | 0.01 | 0.01 | 85 | 1005.0 |
| 20260508131957 | 66 | 320 | 0.0 | 0.0 | 0.00 | 0.01 | 0.01 | 85 | 1004.9 |
| 20260508131857 | 66 | 320 | 0.0 | 0.0 | 0.00 | 0.01 | 0.01 | 85 | 1004.8 |
| 20260508131757 | 66 | 320 | 0.0 | 0.0 | 0.00 | 0.01 | 0.01 | 85 | 1004.7 |
| 20260508131657 | 66 | 320 | 0.0 | 0.0 | 0.00 | 0.01 | 0.01 | 85 | 1004.8 |
| 20260508131603 | 66 | 320 | 0.0 | 0.0 | 0.00 | 0.01 | 0.01 | 85 | 1004.7 |
| 20260508131458 | 66 | 320 | 0.0 | 0.0 | 0.00 | 0.01 | 0.01 | 85 | 1004.8 |
| 20260508131358 | 66 | 320 | 0.0 | 0.0 | 0.00 | 0.01 | 0.01 | 85 | 1004.8 |
| 20260508131256 | 66 | 320 | 0.0 | 0.0 | 0.00 | 0.01 | 0.01 | 85 | 1004.8 |
| 20260508131157 | 66 | 320 | 0.0 | 0.0 | 0.00 | 0.01 | 0.01 | 85 | 1004.8 |
| 20260508131104 | 66 | 320 | 0.0 | 0.0 | 0.00 | 0.01 | 0.01 | 85 | 1004.8 |
| 20260508130953 | 66 | 320 | 0.0 | 0.0 | 0.00 | 0.01 | 0.01 | 85 | 1004.8 |
| 20260508130853 | 66 | 320 | 0.0 | 0.0 | 0.00 | 0.01 | 0.01 | 85 | 1004.8 |
| 20260508130749 | 66 | 320 | 0.0 | 0.0 | 0.01 | 0.01 | 0.01 | 85 | 1004.7 |
| 20260508130643 | 66 | 320 | 0.0 | 0.0 | 0.01 | 0.01 | 0.01 | 85 | 1004.7 |
| 20260508130545 | 66 | 320 | 0.0 | 0.0 | 0.01 | 0.01 | 0.01 | 85 | 1004.6 |
| 20260508130442 | 66 | 320 | 0.0 | 1.0 | 0.01 | 0.01 | 0.01 | 85 | 1004.7 |
| 20260508130340 | 66 | 320 | 0.0 | 1.0 | 0.01 | 0.01 | 0.01 | 85 | 1004.7 |
| 20260508130241 | 66 | 320 | 0.0 | 1.0 | 0.01 | 0.01 | 0.01 | 85 | 1004.7 |
| 20260508130140 | 66 | 320 | 0.0 | 1.0 | 0.01 | 0.01 | 0.01 | 85 | 1004.7 |
| 20260508130036 | 66 | 320 | 0.0 | 1.0 | 0.01 | 0.01 | 0.01 | 85 | 1004.7 |
| 20260508125937 | 66 | 320 | 0.0 | 1.0 | 0.01 | 0.00 | 0.01 | 85 | 1004.7 |
| 20260508125833 | 66 | 320 | 0.0 | 1.0 | 0.01 | 0.00 | 0.01 | 85 | 1004.7 |
| 20260508125736 | 66 | 320 | 0.0 | 1.0 | 0.01 | 0.00 | 0.01 | 85 | 1004.7 |
| 20260508125633 | 66 | 320 | 0.0 | 1.0 | 0.01 | 0.00 | 0.01 | 85 | 1004.6 |
| 20260508125532 | 66 | 320 | 0.0 | 1.0 | 0.01 | 0.00 | 0.01 | 85 | 1004.6 |
| 20260508125427 | 66 | 320 | 0.0 | 0.0 | 0.01 | 0.00 | 0.01 | 85 | 1004.6 |
| 20260508125326 | 66 | 320 | 0.0 | 0.0 | 0.01 | 0.00 | 0.01 | 85 | 1004.6 |
| 20260508125224 | 66 | 320 | 0.0 | 0.0 | 0.01 | 0.00 | 0.01 | 85 | 1004.6 |
| 20260508125122 | 66 | 320 | 0.0 | 0.0 | 0.01 | 0.00 | 0.01 | 85 | 1004.6 |
| 20260508125017 | 66 | 320 | 0.0 | 0.0 | 0.01 | 0.00 | 0.01 | 85 | 1004.8 |
| 20260508124915 | 66 | 320 | 0.0 | 0.0 | 0.01 | 0.00 | 0.01 | 84 | 1004.7 |
| 20260508124813 | 66 | 320 | 0.0 | 0.0 | 0.01 | 0.00 | 0.01 | 84 | 1004.6 |
| 20260508124712 | 66 | 320 | 0.0 | 0.0 | 0.01 | 0.00 | 0.01 | 84 | 1004.5 |
| 20260508124606 | 66 | 320 | 0.0 | 0.0 | 0.01 | 0.00 | 0.01 | 84 | 1004.4 |
| 20260508124506 | 66 | 320 | 0.0 | 0.0 | 0.01 | 0.00 | 0.01 | 84 | 1004.3 |
| 20260508124403 | 66 | 320 | 0.0 | 0.0 | 0.01 | 0.00 | 0.01 | 84 | 1004.2 |
| 20260508124302 | 66 | 320 | 0.0 | 0.0 | 0.01 | 0.00 | 0.01 | 84 | 1004.1 |
| 20260508124203 | 66 | 320 | 0.0 | 0.0 | 0.01 | 0.00 | 0.01 | 84 | 1004.2 |
| 20260508124102 | 66 | 320 | 0.0 | 0.0 | 0.01 | 0.00 | 0.01 | 84 | 1004.1 |
| 20260508124002 | 66 | 320 | 0.0 | 0.0 | 0.01 | 0.00 | 0.01 | 84 | 1004.2 |
| 20260508123903 | 66 | 320 | 0.0 | 0.0 | 0.01 | 0.00 | 0.01 | 84 | 1004.3 |
| 20260508123803 | 66 | 320 | 0.0 | 0.0 | 0.01 | 0.00 | 0.01 | 84 | 1004.3 |
| 20260508123704 | 66 | 320 | 0.0 | 0.0 | 0.01 | 0.00 | 0.01 | 84 | 1004.4 |
| 20260508123603 | 66 | 320 | 0.0 | 0.0 | 0.01 | 0.00 | 0.01 | 84 | 1004.4 |
| 20260508123503 | 66 | 320 | 0.0 | 0.0 | 0.01 | 0.00 | 0.01 | 84 | 1004.4 |
| 20260508123403 | 66 | 320 | 0.0 | 0.0 | 0.01 | 0.00 | 0.01 | 84 | 1004.4 |
| 20260508123303 | 66 | 320 | 0.0 | 0.0 | 0.01 | 0.00 | 0.01 | 84 | 1004.4 |
| 20260508123202 | 66 | 320 | 0.0 | 0.0 | 0.01 | 0.00 | 0.01 | 84 | 1004.5 |
| 20260508123104 | 66 | 320 | 0.0 | 0.0 | 0.01 | 0.00 | 0.01 | 84 | 1004.6 |
| 20260508123003 | 66 | 320 | 0.0 | 0.0 | 0.01 | 0.00 | 0.01 | 84 | 1004.7 |
| 20260508122901 | 66 | 320 | 0.0 | 0.0 | 0.01 | 0.00 | 0.01 | 84 | 1004.8 |
| 20260508122803 | 66 | 320 | 0.0 | 0.0 | 0.01 | 0.00 | 0.01 | 84 | 1004.9 |
| 20260508122703 | 66 | 320 | 0.0 | 0.0 | 0.01 | 0.00 | 0.01 | 84 | 1005.0 |
| 20260508122603 | 66 | 320 | 0.0 | 0.0 | 0.01 | 0.00 | 0.01 | 84 | 1005.1 |
| 20260508122502 | 66 | 320 | 0.0 | 0.0 | 0.01 | 0.00 | 0.01 | 84 | 1005.0 |
| 20260508122402 | 66 | 320 | 0.0 | 0.0 | 0.01 | 0.00 | 0.01 | 84 | 1005.1 |
| 20260508122306 | 66 | 320 | 0.0 | 0.0 | 0.01 | 0.00 | 0.01 | 84 | 1005.1 |
| 20260508122203 | 66 | 320 | 0.0 | 0.0 | 0.01 | 0.00 | 0.01 | 83 | 1005.1 |
| 20260508122103 | 66 | 320 | 0.0 | 0.0 | 0.01 | 0.00 | 0.01 | 83 | 1005.0 |
| 20260508122002 | 67 | 320 | 0.0 | 0.0 | 0.01 | 0.00 | 0.01 | 83 | 1005.0 |
| 20260508121903 | 67 | 320 | 0.0 | 0.0 | 0.01 | 0.00 | 0.01 | 83 | 1005.0 |
| 20260508121803 | 67 | 320 | 0.0 | 0.0 | 0.01 | 0.00 | 0.01 | 83 | 1005.0 |
| 20260508121702 | 67 | 320 | 0.0 | 0.0 | 0.01 | 0.00 | 0.01 | 83 | 1005.0 |
| 20260508121613 | 67 | 320 | 0.0 | 0.0 | 0.01 | 0.00 | 0.01 | 83 | 1005.1 |
| 20260508121505 | 67 | 320 | 0.0 | 0.0 | 0.01 | 0.00 | 0.01 | 83 | 1005.1 |
| 20260508121403 | 67 | 320 | 0.0 | 0.0 | 0.01 | 0.00 | 0.01 | 83 | 1005.1 |
| 20260508121302 | 67 | 320 | 0.0 | 0.0 | 0.01 | 0.00 | 0.01 | 84 | 1005.1 |
| 20260508121203 | 67 | 320 | 0.0 | 0.0 | 0.01 | 0.00 | 0.01 | 83 | 1005.2 |
| 20260508121103 | 67 | 320 | 0.0 | 1.0 | 0.01 | 0.00 | 0.01 | 83 | 1005.1 |
| 20260508121003 | 67 | 320 | 0.0 | 1.0 | 0.01 | 0.00 | 0.00 | 83 | 1005.0 |
| 20260508120902 | 67 | 320 | 0.0 | 1.0 | 0.01 | 0.00 | 0.00 | 83 | 1005.0 |
| 20260508120802 | 67 | 320 | 0.0 | 1.0 | 0.00 | 0.00 | 0.00 | 83 | 1004.8 |
| 20260508120702 | 67 | 320 | 0.0 | 1.0 | 0.00 | 0.00 | 0.00 | 83 | 1004.8 |
| 20260508120602 | 67 | 320 | 0.0 | 1.0 | 0.00 | 0.00 | 0.00 | 83 | 1004.6 |
| 20260508120502 | 67 | 320 | 0.0 | 1.0 | 0.00 | 0.00 | 0.00 | 83 | 1004.5 |
| 20260508120402 | 67 | 320 | 0.0 | 1.0 | 0.00 | 0.00 | 0.00 | 83 | 1004.5 |
| 20260508120303 | 67 | 320 | 0.0 | 1.0 | 0.00 | 0.00 | 0.00 | 83 | 1004.5 |
| 20260508120203 | 67 | 320 | 0.0 | 1.0 | 0.00 | 0.00 | 0.00 | 83 | 1004.5 |
| 20260508120002 | 67 | 52 | 0.0 | 1.0 | 0.00 | 0.00 | 0.00 | 83 | 1004.5 |
| 20260508115902 | 67 | 52 | 0.0 | 1.0 | 0.00 | 0.00 | 0.00 | 83 | 1004.5 |
| 20260508115802 | 67 | 0 | 0.0 | 1.0 | 0.00 | 0.00 | 0.00 | 83 | 1004.5 |
| 20260508115702 | 67 | 312 | 0.0 | 1.0 | 0.00 | 0.00 | 0.00 | 83 | 1004.5 |
| 20260508115602 | 67 | 312 | 0.0 | 1.0 | 0.00 | 0.00 | 0.00 | 83 | 1004.5 |
| 20260508115503 | 67 | 350 | 0.0 | 0.0 | 0.00 | 0.00 | 0.00 | 83 | 1004.5 |
| 20260508115403 | 67 | 350 | 0.0 | 0.0 | 0.00 | 0.00 | 0.00 | 83 | 1004.5 |
| 20260508115306 | 67 | 350 | 0.0 | 0.0 | 0.00 | 0.00 | 0.00 | 83 | 1004.5 |
| 20260508115212 | 67 | 350 | 0.0 | 1.0 | 0.00 | 0.00 | 0.00 | 83 | 1004.6 |
| 20260508115103 | 67 | 350 | 0.0 | 1.0 | 0.00 | 0.00 | 0.00 | 83 | 1004.6 |
| 20260508115003 | 67 | 350 | 0.0 | 1.0 | 0.00 | 0.00 | 0.00 | 83 | 1004.6 |
| 20260508114902 | 67 | 350 | 0.0 | 1.0 | 0.00 | 0.00 | 0.00 | 83 | 1004.7 |
| 20260508114803 | 67 | 350 | 0.0 | 1.0 | 0.00 | 0.00 | 0.00 | 83 | 1004.7 |
| 20260508114706 | 67 | 350 | 0.0 | 1.0 | 0.00 | 0.00 | 0.00 | 83 | 1004.7 |
| 20260508114602 | 67 | 350 | 0.0 | 1.0 | 0.00 | 0.00 | 0.00 | 83 | 1004.7 |
| 20260508114504 | 67 | 350 | 0.0 | 1.0 | 0.00 | 0.00 | 0.00 | 83 | 1004.7 |
| 20260508114404 | 67 | 350 | 0.0 | 1.0 | 0.00 | 0.00 | 0.00 | 83 | 1004.7 |
| 20260508114303 | 67 | 350 | 0.0 | 1.0 | 0.00 | 0.00 | 0.00 | 83 | 1004.7 |
| 20260508114203 | 67 | 350 | 0.0 | 1.0 | 0.00 | 0.00 | 0.00 | 83 | 1004.7 |
| 20260508114102 | 67 | 350 | 0.0 | 1.0 | 0.00 | 0.00 | 0.00 | 83 | 1004.8 |
| 20260508114004 | 67 | 350 | 0.0 | 1.0 | 0.00 | 0.00 | 0.00 | 83 | 1004.8 |
| 20260508113903 | 67 | 350 | 0.0 | 1.0 | 0.00 | 0.00 | 0.00 | 83 | 1004.8 |
| 20260508113801 | 67 | 350 | 0.0 | 1.0 | 0.00 | 0.00 | 0.00 | 83 | 1004.8 |
| 20260508113702 | 67 | 350 | 0.0 | 1.0 | 0.00 | 0.00 | 0.00 | 83 | 1004.8 |
| 20260508113603 | 67 | 350 | 0.0 | 1.0 | 0.00 | 0.00 | 0.00 | 83 | 1004.7 |
| 20260508113503 | 67 | 350 | 0.0 | 1.0 | 0.00 | 0.00 | 0.00 | 83 | 1004.7 |
| 20260508113402 | 67 | 348 | 0.0 | 1.0 | 0.00 | 0.00 | 0.00 | 83 | 1004.7 |
| 20260508113302 | 67 | 121 | 0.0 | 0.0 | 0.00 | 0.00 | 0.00 | 83 | 1004.8 |
| 20260508113202 | 67 | 121 | 0.0 | 0.0 | 0.00 | 0.00 | 0.00 | 83 | 1004.8 |
| 20260508113102 | 67 | 121 | 0.0 | 1.0 | 0.00 | 0.00 | 0.00 | 83 | 1004.8 |
| 20260508113005 | 67 | 121 | 0.0 | 1.0 | 0.00 | 0.00 | 0.00 | 83 | 1004.9 |
| 20260508112901 | 67 | 121 | 0.0 | 1.0 | 0.00 | 0.00 | 0.00 | 82 | 1004.9 |
| 20260508112801 | 67 | 121 | 0.0 | 1.0 | 0.00 | 0.00 | 0.00 | 82 | 1005.0 |
| 20260508112658 | 67 | 121 | 0.0 | 1.0 | 0.00 | 0.00 | 0.00 | 83 | 1004.8 |
| 20260508112557 | 67 | 121 | 0.0 | 1.0 | 0.00 | 0.00 | 0.00 | 82 | 1004.8 |
| 20260508112456 | 67 | 121 | 0.0 | 1.0 | 0.00 | 0.00 | 0.00 | 82 | 1004.8 |
| 20260508112355 | 67 | 121 | 0.0 | 1.0 | 0.00 | 0.00 | 0.00 | 82 | 1004.7 |
| 20260508112255 | 67 | 121 | 0.0 | 1.0 | 0.00 | 0.00 | 0.00 | 82 | 1004.6 |
| 20260508112156 | 67 | 121 | 0.0 | 1.0 | 0.00 | 0.00 | 0.00 | 82 | 1004.6 |
| 20260508112055 | 67 | 121 | 0.0 | 1.0 | 0.00 | 0.00 | 0.00 | 82 | 1004.5 |
| 20260508111954 | 67 | 121 | 0.0 | 1.0 | 0.00 | 0.00 | 0.00 | 82 | 1004.6 |
| 20260508111854 | 67 | 121 | 0.0 | 1.0 | 0.00 | 0.00 | 0.00 | 82 | 1004.6 |
| 20260508111757 | 67 | 121 | 0.0 | 1.0 | 0.00 | 0.00 | 0.00 | 82 | 1004.6 |
| 20260508111654 | 67 | 121 | 0.0 | 1.0 | 0.00 | 0.00 | 0.00 | 82 | 1004.6 |
| 20260508111556 | 67 | 121 | 0.0 | 1.0 | 0.00 | 0.00 | 0.00 | 82 | 1004.7 |
| 20260508111456 | 67 | 121 | 0.0 | 1.0 | 0.00 | 0.00 | 0.00 | 82 | 1004.7 |
| 20260508111355 | 67 | 121 | 0.0 | 2.0 | 0.00 | 0.00 | 0.00 | 82 | 1004.7 |
| 20260508111254 | 67 | 121 | 0.0 | 2.0 | 0.00 | 0.00 | 0.00 | 82 | 1004.7 |
| 20260508111156 | 67 | 121 | 0.0 | 2.0 | 0.00 | 0.00 | 0.00 | 82 | 1004.6 |
| 20260508111058 | 67 | 121 | 0.0 | 2.0 | 0.00 | 0.00 | 0.00 | 82 | 1004.6 |
| 20260508110956 | 67 | 121 | 0.0 | 2.0 | 0.00 | 0.00 | 0.00 | 82 | 1004.6 |
| 20260508110855 | 67 | 121 | 0.0 | 2.0 | 0.00 | 0.00 | 0.00 | 82 | 1004.7 |
| 20260508110754 | 67 | 121 | 0.0 | 2.0 | 0.00 | 0.00 | 0.00 | 82 | 1004.6 |
| 20260508110655 | 67 | 61 | 0.0 | 2.0 | 0.00 | 0.00 | 0.00 | 82 | 1004.7 |
| 20260508110556 | 67 | 61 | 0.0 | 2.0 | 0.00 | 0.00 | 0.00 | 82 | 1004.7 |
| 20260508110454 | 67 | 79 | 0.0 | 2.0 | 0.00 | 0.00 | 0.00 | 82 | 1004.7 |
| 20260508110356 | 67 | 68 | 0.0 | 1.0 | 0.00 | 0.00 | 0.00 | 82 | 1004.7 |
| 20260508110256 | 67 | 68 | 0.0 | 1.0 | 0.00 | 0.00 | 0.00 | 82 | 1004.8 |
| 20260508110154 | 67 | 0 | 0.0 | 0.0 | 0.00 | 0.00 | 0.00 | 82 | 1004.9 |
| 20260508110054 | 67 | 0 | 0.0 | 0.0 | 0.00 | 0.00 | 0.00 | 82 | 1004.8 |
| 20260508105954 | 67 | 0 | 0.0 | 0.0 | 0.00 | 0.00 | 0.00 | 82 | 1004.8 |
| 20260508105854 | 67 | 0 | 0.0 | 0.0 | 0.00 | 0.00 | 0.00 | 82 | 1004.8 |
| 20260508105755 | 67 | 0 | 0.0 | 0.0 | 0.00 | 0.00 | 0.00 | 82 | 1004.7 |
| 20260508105655 | 67 | 0 | 0.0 | 0.0 | 0.00 | 0.00 | 0.00 | 82 | 1004.7 |
| 20260508105555 | 67 | 0 | 0.0 | 0.0 | 0.00 | 0.00 | 0.00 | 82 | 1004.6 |
| 20260508105455 | 67 | 0 | 0.0 | 0.0 | 0.00 | 0.00 | 0.00 | 82 | 1004.5 |
| 20260508105355 | 67 | 0 | 0.0 | 0.0 | 0.00 | 0.00 | 0.00 | 82 | 1004.5 |
| 20260508105254 | 67 | 0 | 0.0 | 0.0 | 0.00 | 0.00 | 0.00 | 82 | 1004.5 |
| 20260508105156 | 67 | 0 | 0.0 | 0.0 | 0.00 | 0.00 | 0.00 | 82 | 1004.5 |
| 20260508105054 | 67 | 0 | 0.0 | 0.0 | 0.00 | 0.00 | 0.00 | 82 | 1004.5 |
| 20260508104955 | 67 | 92 | 0.0 | 0.0 | 0.00 | 0.00 | 0.00 | 82 | 1004.6 |
| 20260508104854 | 67 | 92 | 0.0 | 0.0 | 0.00 | 0.00 | 0.00 | 82 | 1004.6 |
| 20260508104755 | 67 | 92 | 0.0 | 1.0 | 0.00 | 0.00 | 0.00 | 82 | 1004.6 |
| 20260508104655 | 67 | 92 | 0.0 | 1.0 | 0.00 | 0.00 | 0.00 | 82 | 1004.5 |
| 20260508104554 | 67 | 92 | 0.0 | 1.0 | 0.00 | 0.00 | 0.00 | 82 | 1004.5 |
| 20260508104453 | 67 | 92 | 0.0 | 1.0 | 0.00 | 0.00 | 0.00 | 82 | 1004.5 |
| 20260508104353 | 67 | 92 | 0.0 | 1.0 | 0.00 | 0.00 | 0.00 | 82 | 1004.5 |
| 20260508104254 | 67 | 92 | 0.0 | 1.0 | 0.00 | 0.00 | 0.00 | 82 | 1004.5 |
| 20260508104206 | 67 | 92 | 0.0 | 1.0 | 0.00 | 0.00 | 0.00 | 82 | 1004.5 |
| 20260508104054 | 67 | 92 | 0.0 | 1.0 | 0.00 | 0.00 | 0.00 | 82 | 1004.4 |
| 20260508103955 | 67 | 92 | 0.0 | 1.0 | 0.00 | 0.00 | 0.00 | 82 | 1004.4 |
| 20260508103853 | 67 | 92 | 0.0 | 1.0 | 0.00 | 0.00 | 0.00 | 82 | 1004.3 |
| 20260508103753 | 67 | 102 | 0.0 | 0.0 | 0.00 | 0.00 | 0.00 | 82 | 1004.3 |
| 20260508103655 | 67 | 102 | 0.0 | 0.0 | 0.00 | 0.00 | 0.00 | 82 | 1004.3 |
| 20260508103555 | 67 | 326 | 0.0 | 0.0 | 0.00 | 0.00 | 0.00 | 82 | 1004.4 |
| 20260508103455 | 67 | 326 | 0.0 | 0.0 | 0.00 | 0.00 | 0.00 | 82 | 1004.4 |
| 20260508103353 | 67 | 326 | 0.0 | 0.0 | 0.00 | 0.00 | 0.00 | 82 | 1004.4 |
| 20260508103254 | 67 | 326 | 0.0 | 0.0 | 0.00 | 0.00 | 0.00 | 82 | 1004.4 |
| 20260508103156 | 67 | 326 | 0.0 | 0.0 | 0.00 | 0.00 | 0.00 | 82 | 1004.4 |
| 20260508103054 | 67 | 326 | 0.0 | 0.0 | 0.00 | 0.00 | 0.00 | 82 | 1004.5 |
| 20260508102955 | 67 | 326 | 0.0 | 0.0 | 0.00 | 0.00 | 0.00 | 82 | 1004.5 |
| 20260508102854 | 67 | 326 | 0.0 | 0.0 | 0.00 | 0.00 | 0.00 | 82 | 1004.4 |
| 20260508102753 | 67 | 326 | 0.0 | 0.0 | 0.00 | 0.00 | 0.00 | 82 | 1004.5 |
| 20260508102654 | 67 | 326 | 0.0 | 0.0 | 0.00 | 0.00 | 0.00 | 82 | 1004.4 |
| 20260508102554 | 67 | 326 | 0.0 | 0.0 | 0.00 | 0.00 | 0.00 | 82 | 1004.4 |
| 20260508102455 | 67 | 326 | 0.0 | 0.0 | 0.00 | 0.00 | 0.00 | 82 | 1004.4 |
| 20260508102354 | 67 | 320 | 0.0 | 0.0 | 0.00 | 0.00 | 0.00 | 82 | 1004.4 |
| 20260508102253 | 67 | 320 | 0.0 | 0.0 | 0.00 | 0.00 | 0.00 | 82 | 1004.4 |
| 20260508102154 | 67 | 320 | 0.0 | 0.0 | 0.00 | 0.00 | 0.00 | 82 | 1004.4 |
| 20260508102054 | 67 | 320 | 0.0 | 0.0 | 0.00 | 0.00 | 0.00 | 82 | 1004.5 |
| 20260508101954 | 67 | 320 | 0.0 | 0.0 | 0.00 | 0.00 | 0.00 | 82 | 1004.5 |
| 20260508101854 | 67 | 320 | 0.0 | 0.0 | 0.00 | 0.00 | 0.00 | 82 | 1004.5 |
| 20260508101753 | 67 | 320 | 0.0 | 0.0 | 0.00 | 0.00 | 0.00 | 82 | 1004.5 |
| 20260508101655 | 67 | 71 | 0.0 | 0.0 | 0.00 | 0.00 | 0.00 | 82 | 1004.5 |
| 20260508101553 | 67 | 71 | 0.0 | 0.0 | 0.00 | 0.00 | 0.00 | 82 | 1004.4 |
| 20260508101454 | 67 | 71 | 0.0 | 0.0 | 0.00 | 0.00 | 0.00 | 82 | 1004.4 |
| 20260508101354 | 67 | 71 | 0.0 | 0.0 | 0.00 | 0.00 | 0.00 | 82 | 1004.4 |
| 20260508101255 | 67 | 71 | 0.0 | 0.0 | 0.00 | 0.00 | 0.00 | 82 | 1004.4 |
| 20260508101153 | 67 | 71 | 0.0 | 0.0 | 0.00 | 0.00 | 0.00 | 82 | 1004.5 |
| 20260508101053 | 67 | 71 | 0.0 | 0.0 | 0.00 | 0.00 | 0.00 | 82 | 1004.7 |
| 20260508100955 | 67 | 71 | 0.0 | 0.0 | 0.00 | 0.00 | 0.00 | 82 | 1004.6 |
| 20260508100853 | 67 | 71 | 0.0 | 0.0 | 0.00 | 0.00 | 0.00 | 82 | 1004.6 |
| 20260508100753 | 67 | 71 | 0.0 | 0.0 | 0.00 | 0.00 | 0.00 | 82 | 1004.7 |
| 20260508100654 | 67 | 71 | 0.0 | 0.0 | 0.00 | 0.00 | 0.00 | 82 | 1004.7 |
| 20260508100600 | 67 | 71 | 0.0 | 0.0 | 0.00 | 0.00 | 0.00 | 82 | 1004.7 |
| 20260508100454 | 67 | 71 | 0.0 | 0.0 | 0.00 | 0.00 | 0.00 | 82 | 1004.8 |
| 20260508100353 | 67 | 71 | 0.0 | 0.0 | 0.00 | 0.00 | 0.00 | 82 | 1004.8 |
| 20260508100255 | 67 | 71 | 0.0 | 0.0 | 0.00 | 0.00 | 0.00 | 82 | 1004.8 |
| 20260508100154 | 67 | 71 | 0.0 | 0.0 | 0.00 | 0.00 | 0.00 | 82 | 1004.8 |
| 20260508100056 | 67 | 71 | 0.0 | 0.0 | 0.00 | 0.00 | 0.00 | 82 | 1004.7 |
| 20260508095953 | 67 | 71 | 0.0 | 0.0 | 0.00 | 0.00 | 0.00 | 82 | 1004.7 |
| 20260508095852 | 67 | 71 | 0.0 | 0.0 | 0.00 | 0.00 | 0.00 | 82 | 1004.7 |
| 20260508095753 | 67 | 71 | 0.0 | 0.0 | 0.00 | 0.00 | 0.00 | 82 | 1004.7 |
| 20260508095653 | 67 | 71 | 0.0 | 0.0 | 0.00 | 0.00 | 0.00 | 82 | 1004.8 |
| 20260508095553 | 67 | 71 | 0.0 | 0.0 | 0.00 | 0.00 | 0.00 | 82 | 1004.8 |
| 20260508095454 | 67 | 71 | 0.0 | 0.0 | 0.00 | 0.00 | 0.00 | 82 | 1004.8 |
| 20260508095354 | 67 | 71 | 0.0 | 0.0 | 0.00 | 0.00 | 0.00 | 82 | 1004.8 |
| 20260508095253 | 67 | 71 | 0.0 | 0.0 | 0.00 | 0.00 | 0.00 | 82 | 1004.9 |
| 20260508095154 | 67 | 71 | 0.0 | 0.0 | 0.00 | 0.00 | 0.00 | 82 | 1004.9 |
| 20260508095054 | 67 | 71 | 0.0 | 0.0 | 0.00 | 0.00 | 0.00 | 82 | 1004.9 |
| 20260508094952 | 67 | 71 | 0.0 | 0.0 | 0.00 | 0.00 | 0.00 | 81 | 1005.1 |
| 20260508094853 | 67 | 71 | 0.0 | 0.0 | 0.00 | 0.00 | 0.00 | 81 | 1005.1 |
| 20260508094753 | 67 | 71 | 0.0 | 0.0 | 0.00 | 0.00 | 0.00 | 81 | 1005.1 |
| 20260508094654 | 67 | 71 | 0.0 | 0.0 | 0.00 | 0.00 | 0.00 | 81 | 1005.2 |
| 20260508094552 | 67 | 71 | 0.0 | 0.0 | 0.00 | 0.00 | 0.00 | 81 | 1005.0 |
| 20260508094449 | 67 | 71 | 0.0 | 0.0 | 0.00 | 0.00 | 0.00 | 81 | 1004.9 |
| 20260508094349 | 67 | 71 | 0.0 | 0.0 | 0.00 | 0.00 | 0.00 | 81 | 1004.9 |
| 20260508094246 | 67 | 71 | 0.0 | 0.0 | 0.00 | 0.00 | 0.00 | 81 | 1004.8 |
| 20260508094140 | 67 | 71 | 0.0 | 0.0 | 0.00 | 0.00 | 0.00 | 81 | 1004.8 |
| 20260508094039 | 67 | 71 | 0.0 | 0.0 | 0.00 | 0.00 | 0.00 | 81 | 1004.7 |
| 20260508093941 | 67 | 71 | 0.0 | 0.0 | 0.00 | 0.00 | 0.00 | 81 | 1004.6 |
| 20260508093841 | 67 | 71 | 0.0 | 0.0 | 0.00 | 0.00 | 0.00 | 81 | 1004.6 |
| 20260508093739 | 67 | 71 | 0.0 | 0.0 | 0.00 | 0.00 | 0.00 | 81 | 1004.5 |
| 20260508093639 | 67 | 71 | 0.0 | 0.0 | 0.00 | 0.00 | 0.00 | 81 | 1004.4 |
| 20260508093533 | 67 | 71 | 0.0 | 0.0 | 0.00 | 0.00 | 0.00 | 81 | 1004.3 |
| 20260508093432 | 67 | 71 | 0.0 | 2.0 | 0.00 | 0.00 | 0.00 | 81 | 1004.3 |
| 20260508093330 | 67 | 71 | 0.0 | 2.0 | 0.00 | 0.00 | 0.00 | 81 | 1004.2 |
| 20260508093231 | 67 | 71 | 0.0 | 2.0 | 0.00 | 0.00 | 0.00 | 81 | 1004.1 |
| 20260508093131 | 67 | 71 | 0.0 | 2.0 | 0.00 | 0.00 | 0.00 | 81 | 1004.2 |
| 20260508093031 | 67 | 71 | 0.0 | 2.0 | 0.00 | 0.00 | 0.00 | 81 | 1004.2 |
| 20260508092931 | 67 | 73 | 0.0 | 2.0 | 0.00 | 0.00 | 0.00 | 81 | 1004.2 |
| 20260508092831 | 67 | 73 | 0.0 | 2.0 | 0.00 | 0.00 | 0.00 | 81 | 1004.1 |
| 20260508092731 | 67 | 73 | 0.0 | 2.0 | 0.00 | 0.00 | 0.00 | 81 | 1004.1 |
| 20260508092625 | 67 | 73 | 0.0 | 2.0 | 0.00 | 0.00 | 0.00 | 81 | 1004.1 |
| 20260508092521 | 67 | 73 | 0.0 | 2.0 | 0.00 | 0.00 | 0.00 | 81 | 1004.2 |
| 20260508092417 | 67 | 73 | 0.0 | 1.0 | 0.00 | 0.00 | 0.00 | 81 | 1004.3 |
| 20260508092313 | 67 | 340 | 0.0 | 0.0 | 0.00 | 0.00 | 0.00 | 81 | 1004.4 |
| 20260508092206 | 67 | 340 | 0.0 | 0.0 | 0.00 | 0.00 | 0.00 | 81 | 1004.5 |
| 20260508092104 | 67 | 340 | 0.0 | 0.0 | 0.00 | 0.00 | 0.00 | 81 | 1004.5 |
| 20260508092005 | 67 | 340 | 0.0 | 0.0 | 0.00 | 0.00 | 0.00 | 81 | 1004.5 |
| 20260508091903 | 67 | 340 | 0.0 | 0.0 | 0.00 | 0.00 | 0.00 | 81 | 1004.5 |
| 20260508091803 | 67 | 340 | 0.0 | 0.0 | 0.00 | 0.00 | 0.00 | 81 | 1004.6 |
| 20260508091704 | 67 | 340 | 0.0 | 0.0 | 0.00 | 0.00 | 0.00 | 81 | 1004.6 |
| 20260508091604 | 67 | 340 | 0.0 | 0.0 | 0.00 | 0.00 | 0.00 | 81 | 1004.6 |
| 20260508091501 | 67 | 340 | 0.0 | 0.0 | 0.00 | 0.00 | 0.00 | 81 | 1004.6 |
| 20260508091401 | 67 | 340 | 0.0 | 0.0 | 0.00 | 0.00 | 0.00 | 81 | 1004.5 |
| 20260508091253 | 67 | 340 | 0.0 | 0.0 | 0.00 | 0.00 | 0.00 | 81 | 1004.5 |
| 20260508091152 | 67 | 340 | 0.0 | 0.0 | 0.00 | 0.00 | 0.00 | 81 | 1004.5 |
| 20260508091052 | 67 | 340 | 0.0 | 0.0 | 0.00 | 0.00 | 0.00 | 81 | 1004.5 |
| 20260508090952 | 67 | 340 | 0.0 | 0.0 | 0.00 | 0.00 | 0.00 | 81 | 1004.5 |
| 20260508090851 | 67 | 340 | 0.0 | 0.0 | 0.00 | 0.00 | 0.00 | 81 | 1004.5 |
| 20260508090752 | 67 | 340 | 0.0 | 0.0 | 0.00 | 0.00 | 0.00 | 81 | 1004.5 |
| 20260508090650 | 67 | 340 | 0.0 | 0.0 | 0.00 | 0.00 | 0.00 | 81 | 1004.4 |
| 20260508090552 | 67 | 340 | 0.0 | 0.0 | 0.00 | 0.00 | 0.00 | 81 | 1004.4 |
| 20260508090453 | 67 | 340 | 0.0 | 0.0 | 0.00 | 0.00 | 0.00 | 81 | 1004.4 |
| 20260508090353 | 67 | 340 | 0.0 | 0.0 | 0.00 | 0.00 | 0.00 | 81 | 1004.4 |
| 20260508090253 | 67 | 340 | 0.0 | 0.0 | 0.00 | 0.00 | 0.00 | 81 | 1004.3 |
| 20260508090152 | 67 | 340 | 0.0 | 0.0 | 0.00 | 0.00 | 0.00 | 81 | 1004.3 |
| 20260508090051 | 67 | 340 | 0.0 | 0.0 | 0.00 | 0.00 | 0.00 | 81 | 1004.3 |
| 20260508085952 | 67 | 340 | 0.0 | 0.0 | 0.00 | 0.00 | 0.00 | 81 | 1004.3 |
| 20260508085852 | 67 | 340 | 0.0 | 0.0 | 0.00 | 0.00 | 0.00 | 81 | 1004.3 |
| 20260508085751 | 67 | 340 | 0.0 | 0.0 | 0.00 | 0.00 | 0.00 | 81 | 1004.3 |
| 20260508085651 | 67 | 340 | 0.0 | 0.0 | 0.00 | 0.00 | 0.00 | 81 | 1004.3 |
| 20260508085552 | 67 | 340 | 0.0 | 0.0 | 0.00 | 0.00 | 0.00 | 81 | 1004.3 |
| 20260508085453 | 67 | 340 | 0.0 | 0.0 | 0.00 | 0.00 | 0.00 | 81 | 1004.1 |
| 20260508085351 | 67 | 340 | 0.0 | 0.0 | 0.00 | 0.00 | 0.00 | 81 | 1004.1 |
| 20260508085252 | 67 | 350 | 0.0 | 0.0 | 0.00 | 0.00 | 0.00 | 81 | 1004.1 |
| 20260508085151 | 67 | 350 | 0.0 | 0.0 | 0.00 | 0.00 | 0.00 | 81 | 1004.1 |
| 20260508085056 | 67 | 350 | 0.0 | 0.0 | 0.00 | 0.00 | 0.00 | 81 | 1004.0 |
| 20260508084952 | 67 | 350 | 0.0 | 0.0 | 0.00 | 0.00 | 0.00 | 81 | 1004.0 |
| 20260508084852 | 67 | 350 | 0.0 | 0.0 | 0.00 | 0.00 | 0.00 | 81 | 1004.1 |
| 20260508084753 | 67 | 350 | 0.0 | 0.0 | 0.00 | 0.00 | 0.00 | 81 | 1004.0 |
| 20260508084651 | 67 | 350 | 0.0 | 0.0 | 0.00 | 0.00 | 0.00 | 81 | 1004.1 |
| 20260508084552 | 67 | 350 | 0.0 | 0.0 | 0.00 | 0.00 | 0.00 | 81 | 1004.1 |
| 20260508084451 | 67 | 350 | 0.0 | 0.0 | 0.00 | 0.00 | 0.00 | 81 | 1004.2 |
| 20260508084351 | 67 | 350 | 0.0 | 0.0 | 0.00 | 0.00 | 0.00 | 81 | 1004.2 |
| 20260508084252 | 67 | 350 | 0.0 | 0.0 | 0.00 | 0.00 | 0.00 | 81 | 1004.3 |
| 20260508084151 | 67 | 350 | 0.0 | 0.0 | 0.00 | 0.00 | 0.00 | 81 | 1004.3 |
| 20260508084054 | 67 | 350 | 0.0 | 0.0 | 0.00 | 0.00 | 0.00 | 81 | 1004.4 |
| 20260508083951 | 67 | 350 | 0.0 | 0.0 | 0.00 | 0.00 | 0.00 | 81 | 1004.4 |
| 20260508083851 | 67 | 350 | 0.0 | 0.0 | 0.00 | 0.00 | 0.00 | 81 | 1004.4 |
| 20260508083753 | 67 | 350 | 0.0 | 0.0 | 0.00 | 0.00 | 0.00 | 81 | 1004.4 |
| 20260508083651 | 67 | 350 | 0.0 | 0.0 | 0.00 | 0.00 | 0.00 | 81 | 1004.4 |
| 20260508083550 | 67 | 350 | 0.0 | 0.0 | 0.00 | 0.00 | 0.00 | 81 | 1004.4 |
| 20260508083451 | 67 | 350 | 0.0 | 0.0 | 0.00 | 0.00 | 0.00 | 81 | 1004.4 |
| 20260508083351 | 67 | 350 | 0.0 | 0.0 | 0.00 | 0.00 | 0.00 | 81 | 1004.5 |
| 20260508083251 | 67 | 350 | 0.0 | 0.0 | 0.00 | 0.00 | 0.00 | 81 | 1004.5 |
| 20260508083152 | 67 | 350 | 0.0 | 0.0 | 0.00 | 0.00 | 0.00 | 81 | 1004.5 |
| 20260508083053 | 67 | 350 | 0.0 | 0.0 | 0.00 | 0.00 | 0.00 | 81 | 1004.5 |
| 20260508082951 | 67 | 350 | 0.0 | 0.0 | 0.00 | 0.00 | 0.00 | 81 | 1004.6 |
| 20260508082851 | 67 | 350 | 0.0 | 0.0 | 0.00 | 0.00 | 0.00 | 81 | 1004.6 |
| 20260508082751 | 67 | 350 | 0.0 | 0.0 | 0.00 | 0.00 | 0.00 | 81 | 1004.6 |
| 20260508082650 | 67 | 350 | 0.0 | 0.0 | 0.00 | 0.00 | 0.00 | 81 | 1004.6 |
| 20260508082551 | 67 | 350 | 0.0 | 0.0 | 0.00 | 0.00 | 0.00 | 81 | 1004.6 |
| 20260508082452 | 67 | 350 | 0.0 | 1.0 | 0.00 | 0.00 | 0.00 | 81 | 1004.6 |
| 20260508082352 | 67 | 350 | 0.0 | 1.0 | 0.00 | 0.00 | 0.00 | 81 | 1004.6 |
| 20260508082251 | 67 | 350 | 0.0 | 1.0 | 0.00 | 0.00 | 0.00 | 81 | 1004.7 |
| 20260508082151 | 67 | 350 | 0.0 | 1.0 | 0.00 | 0.00 | 0.00 | 81 | 1004.7 |
| 20260508082050 | 67 | 350 | 0.0 | 1.0 | 0.00 | 0.00 | 0.00 | 81 | 1004.7 |
| 20260508081951 | 67 | 350 | 0.0 | 1.0 | 0.00 | 0.00 | 0.00 | 81 | 1004.7 |
| 20260508081852 | 67 | 350 | 0.0 | 1.0 | 0.00 | 0.00 | 0.00 | 81 | 1004.6 |
| 20260508081752 | 67 | 350 | 0.0 | 1.0 | 0.00 | 0.00 | 0.00 | 81 | 1004.5 |
| 20260508081650 | 67 | 350 | 0.0 | 1.0 | 0.00 | 0.00 | 0.00 | 81 | 1004.6 |
| 20260508081550 | 67 | 350 | 0.0 | 1.0 | 0.00 | 0.00 | 0.00 | 81 | 1004.6 |
| 20260508081450 | 67 | 86 | 0.0 | 0.0 | 0.00 | 0.00 | 0.00 | 81 | 1004.6 |
| 20260508081352 | 67 | 86 | 0.0 | 0.0 | 0.00 | 0.00 | 0.00 | 81 | 1004.6 |
| 20260508081250 | 67 | 86 | 0.0 | 0.0 | 0.00 | 0.00 | 0.00 | 81 | 1004.6 |
| 20260508081151 | 67 | 86 | 0.0 | 0.0 | 0.00 | 0.00 | 0.00 | 81 | 1004.6 |
| 20260508081050 | 67 | 86 | 0.0 | 0.0 | 0.00 | 0.00 | 0.00 | 81 | 1004.5 |
| 20260508080952 | 66 | 86 | 0.0 | 0.0 | 0.00 | 0.00 | 0.00 | 81 | 1004.6 |
| 20260508080850 | 66 | 86 | 0.0 | 0.0 | 0.00 | 0.00 | 0.00 | 81 | 1004.6 |
| 20260508080752 | 66 | 86 | 0.0 | 0.0 | 0.00 | 0.00 | 0.00 | 81 | 1004.6 |
| 20260508080657 | 66 | 86 | 0.0 | 0.0 | 0.00 | 0.00 | 0.00 | 81 | 1004.6 |
| 20260508080550 | 66 | 86 | 0.0 | 0.0 | 0.00 | 0.00 | 0.00 | 81 | 1004.6 |
| 20260508080452 | 66 | 86 | 0.0 | 0.0 | 0.00 | 0.00 | 0.00 | 81 | 1004.6 |
| 20260508080350 | 66 | 86 | 0.0 | 0.0 | 0.00 | 0.00 | 0.00 | 81 | 1004.5 |
| 20260508080252 | 66 | 86 | 0.0 | 0.0 | 0.00 | 0.00 | 0.00 | 81 | 1004.6 |
| 20260508080152 | 66 | 86 | 0.0 | 0.0 | 0.00 | 0.00 | 0.00 | 81 | 1004.6 |
| 20260508080050 | 66 | 86 | 0.0 | 0.0 | 0.00 | 0.00 | 0.00 | 81 | 1004.6 |
| 20260508075950 | 66 | 86 | 0.0 | 0.0 | 0.00 | 0.00 | 0.00 | 81 | 1004.6 |
| 20260508075851 | 66 | 86 | 0.0 | 0.0 | 0.00 | 0.00 | 0.00 | 81 | 1004.7 |
| 20260508075750 | 66 | 86 | 0.0 | 0.0 | 0.00 | 0.00 | 0.00 | 81 | 1004.6 |
| 20260508075650 | 66 | 86 | 0.0 | 0.0 | 0.00 | 0.00 | 0.00 | 81 | 1004.6 |
| 20260508075551 | 66 | 86 | 0.0 | 0.0 | 0.00 | 0.00 | 0.00 | 81 | 1004.6 |
| 20260508075450 | 66 | 86 | 0.0 | 0.0 | 0.00 | 0.00 | 0.00 | 81 | 1004.5 |
| 20260508075351 | 66 | 86 | 0.0 | 0.0 | 0.00 | 0.00 | 0.00 | 81 | 1004.6 |
| 20260508075250 | 66 | 86 | 0.0 | 0.0 | 0.00 | 0.00 | 0.00 | 82 | 1004.6 |
| 20260508075150 | 66 | 86 | 0.0 | 0.0 | 0.00 | 0.00 | 0.00 | 82 | 1004.7 |
| 20260508075050 | 66 | 86 | 0.0 | 0.0 | 0.00 | 0.00 | 0.00 | 82 | 1004.6 |
| 20260508074951 | 66 | 86 | 0.0 | 0.0 | 0.00 | 0.00 | 0.00 | 82 | 1004.7 |
| 20260508074850 | 66 | 86 | 0.0 | 0.0 | 0.00 | 0.00 | 0.00 | 82 | 1004.8 |
| 20260508074749 | 66 | 86 | 0.0 | 0.0 | 0.00 | 0.00 | 0.00 | 82 | 1004.7 |
| 20260508074651 | 66 | 86 | 0.0 | 0.0 | 0.00 | 0.00 | 0.00 | 82 | 1004.7 |
| 20260508074550 | 66 | 86 | 0.0 | 0.0 | 0.00 | 0.00 | 0.00 | 82 | 1004.8 |
| 20260508074451 | 66 | 86 | 0.0 | 0.0 | 0.00 | 0.00 | 0.00 | 82 | 1004.7 |
| 20260508074351 | 66 | 86 | 0.0 | 0.0 | 0.00 | 0.00 | 0.00 | 82 | 1004.7 |
| 20260508074249 | 66 | 86 | 0.0 | 0.0 | 0.00 | 0.00 | 0.00 | 82 | 1004.8 |
| 20260508074151 | 66 | 86 | 0.0 | 0.0 | 0.00 | 0.00 | 0.00 | 82 | 1004.8 |
| 20260508074050 | 66 | 86 | 0.0 | 0.0 | 0.00 | 0.00 | 0.00 | 82 | 1004.9 |
| 20260508073950 | 66 | 86 | 0.0 | 0.0 | 0.00 | 0.00 | 0.00 | 82 | 1005.0 |
| 20260508073851 | 66 | 86 | 0.0 | 0.0 | 0.00 | 0.00 | 0.00 | 82 | 1005.0 |
| 20260508073750 | 66 | 86 | 0.0 | 0.0 | 0.00 | 0.00 | 0.00 | 82 | 1005.0 |
| 20260508073650 | 66 | 86 | 0.0 | 0.0 | 0.00 | 0.00 | 0.00 | 82 | 1005.0 |
| 20260508073550 | 66 | 86 | 0.0 | 0.0 | 0.00 | 0.00 | 0.00 | 82 | 1005.1 |
| 20260508073449 | 66 | 86 | 0.0 | 0.0 | 0.00 | 0.00 | 0.00 | 82 | 1005.0 |
| 20260508073350 | 66 | 86 | 0.0 | 0.0 | 0.00 | 0.00 | 0.00 | 82 | 1005.0 |
| 20260508073252 | 66 | 86 | 0.0 | 0.0 | 0.00 | 0.00 | 0.00 | 82 | 1005.1 |
| 20260508073149 | 66 | 86 | 0.0 | 0.0 | 0.00 | 0.00 | 0.00 | 82 | 1005.1 |
| 20260508073049 | 66 | 86 | 0.0 | 0.0 | 0.00 | 0.00 | 0.00 | 82 | 1005.2 |
| 20260508072950 | 66 | 86 | 0.0 | 0.0 | 0.00 | 0.00 | 0.00 | 82 | 1005.2 |
| 20260508072850 | 66 | 86 | 0.0 | 0.0 | 0.00 | 0.00 | 0.00 | 82 | 1005.3 |
| 20260508072750 | 66 | 86 | 0.0 | 0.0 | 0.00 | 0.00 | 0.00 | 82 | 1005.3 |
| 20260508072652 | 66 | 86 | 0.0 | 0.0 | 0.00 | 0.00 | 0.00 | 82 | 1005.3 |
| 20260508072551 | 66 | 86 | 0.0 | 0.0 | 0.00 | 0.00 | 0.00 | 82 | 1005.4 |
| 20260508072451 | 66 | 86 | 0.0 | 0.0 | 0.00 | 0.00 | 0.00 | 82 | 1005.4 |
| 20260508072349 | 66 | 86 | 0.0 | 0.0 | 0.00 | 0.00 | 0.00 | 82 | 1005.4 |
| 20260508072252 | 66 | 86 | 0.0 | 0.0 | 0.00 | 0.00 | 0.00 | 82 | 1005.3 |
| 20260508072151 | 66 | 86 | 0.0 | 0.0 | 0.00 | 0.00 | 0.00 | 82 | 1005.3 |
| 20260508072053 | 66 | 86 | 0.0 | 0.0 | 0.00 | 0.00 | 0.00 | 82 | 1005.2 |
| 20260508071951 | 66 | 86 | 0.0 | 0.0 | 0.00 | 0.00 | 0.00 | 82 | 1005.1 |
| 20260508071851 | 66 | 86 | 0.0 | 0.0 | 0.00 | 0.00 | 0.00 | 82 | 1005.0 |
| 20260508071751 | 66 | 86 | 0.0 | 0.0 | 0.00 | 0.00 | 0.00 | 82 | 1005.1 |
| 20260508071649 | 66 | 86 | 0.0 | 0.0 | 0.00 | 0.00 | 0.00 | 82 | 1005.1 |
| 20260508071550 | 66 | 86 | 0.0 | 0.0 | 0.00 | 0.00 | 0.00 | 82 | 1005.2 |
| 20260508071449 | 66 | 86 | 0.0 | 0.0 | 0.00 | 0.00 | 0.00 | 82 | 1005.3 |
| 20260508071349 | 66 | 86 | 0.0 | 0.0 | 0.00 | 0.00 | 0.00 | 82 | 1005.3 |
| 20260508071252 | 66 | 86 | 0.0 | 0.0 | 0.00 | 0.00 | 0.00 | 82 | 1005.3 |
| 20260508071149 | 66 | 86 | 0.0 | 0.0 | 0.00 | 0.00 | 0.00 | 82 | 1005.3 |
| 20260508071051 | 66 | 86 | 0.0 | 0.0 | 0.00 | 0.00 | 0.00 | 82 | 1005.2 |
| 20260508070952 | 66 | 86 | 0.0 | 0.0 | 0.00 | 0.00 | 0.00 | 82 | 1005.1 |
| 20260508070849 | 66 | 86 | 0.0 | 0.0 | 0.00 | 0.00 | 0.00 | 82 | 1005.0 |
| 20260508070749 | 66 | 86 | 0.0 | 0.0 | 0.00 | 0.00 | 0.00 | 82 | 1005.0 |
| 20260508070649 | 66 | 86 | 0.0 | 0.0 | 0.00 | 0.00 | 0.00 | 82 | 1004.9 |
| 20260508070549 | 65 | 86 | 0.0 | 0.0 | 0.00 | 0.00 | 0.00 | 82 | 1005.0 |
| 20260508070451 | 65 | 86 | 0.0 | 0.0 | 0.00 | 0.00 | 0.00 | 82 | 1004.9 |
| 20260508070349 | 65 | 86 | 0.0 | 0.0 | 0.00 | 0.00 | 0.00 | 82 | 1005.0 |
| 20260508070249 | 65 | 86 | 0.0 | 0.0 | 0.00 | 0.00 | 0.00 | 82 | 1005.1 |
| 20260508070149 | 65 | 86 | 0.0 | 0.0 | 0.00 | 0.00 | 0.00 | 82 | 1005.1 |
| 20260508070050 | 65 | 86 | 0.0 | 0.0 | 0.00 | 0.00 | 0.00 | 82 | 1005.2 |
| 20260508065950 | 65 | 86 | 0.0 | 0.0 | 0.00 | 0.00 | 0.00 | 82 | 1005.1 |
| 20260508065850 | 65 | 86 | 0.0 | 0.0 | 0.00 | 0.00 | 0.00 | 82 | 1005.2 |
| 20260508065748 | 65 | 86 | 0.0 | 0.0 | 0.00 | 0.00 | 0.00 | 82 | 1005.3 |
| 20260508065649 | 65 | 86 | 0.0 | 0.0 | 0.00 | 0.00 | 0.00 | 82 | 1005.2 |
| 20260508065548 | 65 | 86 | 0.0 | 0.0 | 0.00 | 0.00 | 0.00 | 82 | 1005.3 |
| 20260508065449 | 65 | 86 | 0.0 | 0.0 | 0.00 | 0.00 | 0.00 | 82 | 1005.4 |
| 20260508065349 | 65 | 86 | 0.0 | 0.0 | 0.00 | 0.00 | 0.00 | 82 | 1005.4 |
| 20260508065249 | 65 | 86 | 0.0 | 0.0 | 0.00 | 0.00 | 0.00 | 82 | 1005.4 |
| 20260508065149 | 65 | 86 | 0.0 | 0.0 | 0.00 | 0.00 | 0.00 | 82 | 1005.3 |
| 20260508065049 | 65 | 86 | 0.0 | 0.0 | 0.00 | 0.00 | 0.00 | 82 | 1005.3 |
| 20260508064950 | 65 | 86 | 0.0 | 0.0 | 0.00 | 0.00 | 0.00 | 82 | 1005.3 |
| 20260508064850 | 65 | 86 | 0.0 | 0.0 | 0.00 | 0.00 | 0.00 | 82 | 1005.4 |
| 20260508064748 | 65 | 86 | 0.0 | 0.0 | 0.00 | 0.00 | 0.00 | 82 | 1005.4 |
| 20260508064649 | 65 | 86 | 0.0 | 0.0 | 0.00 | 0.00 | 0.00 | 82 | 1005.4 |
| 20260508064550 | 65 | 86 | 0.0 | 0.0 | 0.00 | 0.00 | 0.00 | 82 | 1005.3 |
| 20260508064448 | 65 | 86 | 0.0 | 0.0 | 0.00 | 0.00 | 0.00 | 82 | 1005.3 |
| 20260508064349 | 65 | 86 | 0.0 | 0.0 | 0.00 | 0.00 | 0.00 | 82 | 1005.3 |
| 20260508064248 | 65 | 86 | 0.0 | 0.0 | 0.00 | 0.00 | 0.00 | 82 | 1005.3 |
| 20260508064150 | 65 | 86 | 0.0 | 0.0 | 0.00 | 0.00 | 0.00 | 82 | 1005.3 |
| 20260508064050 | 65 | 86 | 0.0 | 0.0 | 0.00 | 0.00 | 0.00 | 82 | 1005.3 |
| 20260508063949 | 65 | 86 | 0.0 | 0.0 | 0.00 | 0.00 | 0.00 | 82 | 1005.3 |
| 20260508063849 | 65 | 86 | 0.0 | 0.0 | 0.00 | 0.00 | 0.00 | 82 | 1005.3 |
| 20260508063749 | 65 | 86 | 0.0 | 0.0 | 0.00 | 0.00 | 0.00 | 82 | 1005.2 |
| 20260508063650 | 65 | 86 | 0.0 | 0.0 | 0.00 | 0.00 | 0.00 | 82 | 1005.2 |
| 20260508063549 | 65 | 86 | 0.0 | 0.0 | 0.00 | 0.00 | 0.00 | 82 | 1005.3 |
| 20260508063450 | 65 | 86 | 0.0 | 0.0 | 0.00 | 0.00 | 0.00 | 82 | 1005.3 |
| 20260508063348 | 65 | 86 | 0.0 | 0.0 | 0.00 | 0.00 | 0.00 | 82 | 1005.3 |
| 20260508063250 | 65 | 86 | 0.0 | 0.0 | 0.00 | 0.00 | 0.00 | 82 | 1005.2 |
| 20260508063149 | 65 | 86 | 0.0 | 0.0 | 0.00 | 0.00 | 0.00 | 83 | 1005.2 |
| 20260508063048 | 65 | 99 | 0.0 | 0.0 | 0.00 | 0.00 | 0.00 | 83 | 1005.3 |
| 20260508062948 | 65 | 99 | 0.0 | 0.0 | 0.00 | 0.00 | 0.00 | 83 | 1005.3 |
| 20260508062849 | 65 | 99 | 0.0 | 0.0 | 0.00 | 0.00 | 0.00 | 83 | 1005.3 |
| 20260508062748 | 65 | 99 | 0.0 | 0.0 | 0.00 | 0.00 | 0.00 | 82 | 1005.4 |
| 20260508062654 | 65 | 99 | 0.0 | 0.0 | 0.00 | 0.00 | 0.00 | 82 | 1005.4 |
| 20260508062548 | 65 | 99 | 0.0 | 0.0 | 0.00 | 0.00 | 0.00 | 82 | 1005.4 |
| 20260508062448 | 65 | 99 | 0.0 | 0.0 | 0.00 | 0.00 | 0.00 | 82 | 1005.5 |
| 20260508062348 | 65 | 99 | 0.0 | 0.0 | 0.00 | 0.00 | 0.00 | 82 | 1005.5 |
| 20260508062248 | 65 | 99 | 0.0 | 0.0 | 0.00 | 0.00 | 0.00 | 82 | 1005.5 |
| 20260508062151 | 65 | 99 | 0.0 | 0.0 | 0.00 | 0.00 | 0.00 | 82 | 1005.5 |
| 20260508062048 | 65 | 99 | 0.0 | 1.0 | 0.00 | 0.00 | 0.00 | 82 | 1005.5 |
| 20260508061948 | 65 | 99 | 0.0 | 1.0 | 0.00 | 0.00 | 0.00 | 82 | 1005.5 |
| 20260508061848 | 65 | 99 | 0.0 | 1.0 | 0.00 | 0.00 | 0.00 | 82 | 1005.4 |
| 20260508061747 | 65 | 99 | 0.0 | 1.0 | 0.00 | 0.00 | 0.00 | 82 | 1005.4 |
| 20260508061648 | 65 | 99 | 0.0 | 1.0 | 0.00 | 0.00 | 0.00 | 82 | 1005.3 |
| 20260508061548 | 65 | 100 | 0.0 | 1.0 | 0.00 | 0.00 | 0.00 | 82 | 1005.2 |
| 20260508061448 | 65 | 100 | 0.0 | 1.0 | 0.00 | 0.00 | 0.00 | 82 | 1005.2 |
| 20260508061348 | 65 | 93 | 0.0 | 1.0 | 0.00 | 0.00 | 0.00 | 82 | 1005.3 |
| 20260508061247 | 65 | 93 | 0.0 | 1.0 | 0.00 | 0.00 | 0.00 | 82 | 1005.4 |
| 20260508061147 | 65 | 92 | 0.0 | 1.0 | 0.00 | 0.00 | 0.00 | 82 | 1005.4 |
| 20260508061048 | 65 | 93 | 0.0 | 0.0 | 0.00 | 0.00 | 0.00 | 82 | 1005.4 |
| 20260508060948 | 65 | 93 | 0.0 | 0.0 | 0.00 | 0.00 | 0.00 | 82 | 1005.5 |
| 20260508060849 | 65 | 93 | 0.0 | 0.0 | 0.00 | 0.00 | 0.00 | 82 | 1005.6 |
| 20260508060747 | 65 | 93 | 0.0 | 0.0 | 0.00 | 0.00 | 0.00 | 82 | 1005.6 |
| 20260508060650 | 65 | 93 | 0.0 | 0.0 | 0.00 | 0.00 | 0.00 | 82 | 1005.7 |
| 20260508060547 | 65 | 93 | 0.0 | 0.0 | 0.00 | 0.00 | 0.00 | 82 | 1005.7 |
| 20260508060447 | 65 | 93 | 0.0 | 0.0 | 0.00 | 0.00 | 0.00 | 82 | 1005.6 |
| 20260508060349 | 65 | 93 | 0.0 | 0.0 | 0.00 | 0.00 | 0.00 | 82 | 1005.6 |
| 20260508060247 | 65 | 93 | 0.0 | 0.0 | 0.00 | 0.00 | 0.00 | 82 | 1005.4 |
| 20260508060147 | 65 | 93 | 0.0 | 0.0 | 0.00 | 0.00 | 0.00 | 82 | 1005.4 |
| 20260508060048 | 65 | 93 | 0.0 | 0.0 | 0.00 | 0.00 | 0.00 | 82 | 1005.2 |
| 20260508055948 | 65 | 93 | 0.0 | 0.0 | 0.00 | 0.00 | 0.00 | 82 | 1005.3 |
| 20260508055847 | 65 | 93 | 0.0 | 0.0 | 0.00 | 0.00 | 0.00 | 82 | 1005.2 |
| 20260508055748 | 65 | 93 | 0.0 | 0.0 | 0.00 | 0.00 | 0.00 | 82 | 1005.2 |
| 20260508055648 | 65 | 93 | 0.0 | 0.0 | 0.00 | 0.00 | 0.00 | 82 | 1005.2 |
| 20260508055548 | 65 | 93 | 0.0 | 0.0 | 0.00 | 0.00 | 0.00 | 82 | 1005.2 |
| 20260508055448 | 65 | 93 | 0.0 | 0.0 | 0.00 | 0.00 | 0.00 | 82 | 1005.1 |
| 20260508055347 | 65 | 93 | 0.0 | 0.0 | 0.00 | 0.00 | 0.00 | 82 | 1005.2 |
| 20260508055247 | 65 | 93 | 0.0 | 0.0 | 0.00 | 0.00 | 0.00 | 82 | 1005.1 |
| 20260508055147 | 65 | 93 | 0.0 | 0.0 | 0.00 | 0.00 | 0.00 | 82 | 1005.1 |
| 20260508055054 | 65 | 93 | 0.0 | 0.0 | 0.00 | 0.00 | 0.00 | 82 | 1005.0 |
| 20260508054948 | 65 | 93 | 0.0 | 0.0 | 0.00 | 0.00 | 0.00 | 82 | 1005.0 |
| 20260508054849 | 65 | 93 | 0.0 | 0.0 | 0.00 | 0.00 | 0.00 | 82 | 1005.0 |
| 20260508054748 | 65 | 93 | 0.0 | 0.0 | 0.00 | 0.00 | 0.00 | 82 | 1004.9 |
| 20260508054647 | 65 | 93 | 0.0 | 0.0 | 0.00 | 0.00 | 0.00 | 82 | 1005.0 |
| 20260508054555 | 65 | 93 | 0.0 | 0.0 | 0.00 | 0.00 | 0.00 | 82 | 1005.0 |
| 20260508054447 | 65 | 93 | 0.0 | 0.0 | 0.00 | 0.00 | 0.00 | 82 | 1004.9 |
| 20260508054347 | 65 | 93 | 0.0 | 0.0 | 0.00 | 0.00 | 0.00 | 82 | 1005.0 |
| 20260508054247 | 65 | 93 | 0.0 | 0.0 | 0.00 | 0.00 | 0.00 | 82 | 1005.1 |
| 20260508054149 | 65 | 93 | 0.0 | 0.0 | 0.00 | 0.00 | 0.00 | 82 | 1005.2 |
| 20260508054048 | 65 | 93 | 0.0 | 0.0 | 0.00 | 0.00 | 0.00 | 82 | 1005.1 |
| 20260508053947 | 65 | 93 | 0.0 | 0.0 | 0.00 | 0.00 | 0.00 | 82 | 1005.2 |
| 20260508053849 | 65 | 93 | 0.0 | 0.0 | 0.00 | 0.00 | 0.00 | 82 | 1005.2 |
| 20260508053747 | 65 | 93 | 0.0 | 0.0 | 0.00 | 0.00 | 0.00 | 82 | 1005.2 |
| 20260508053648 | 65 | 93 | 0.0 | 0.0 | 0.00 | 0.00 | 0.00 | 82 | 1005.3 |
| 20260508053548 | 65 | 93 | 0.0 | 0.0 | 0.00 | 0.00 | 0.00 | 82 | 1005.3 |
| 20260508053447 | 65 | 93 | 0.0 | 0.0 | 0.00 | 0.00 | 0.00 | 82 | 1005.3 |
| 20260508053348 | 65 | 93 | 0.0 | 0.0 | 0.00 | 0.00 | 0.00 | 82 | 1005.3 |
| 20260508053248 | 65 | 93 | 0.0 | 0.0 | 0.00 | 0.00 | 0.00 | 82 | 1005.3 |
| 20260508053148 | 66 | 93 | 0.0 | 0.0 | 0.00 | 0.00 | 0.00 | 82 | 1005.3 |
| 20260508053048 | 66 | 93 | 0.0 | 0.0 | 0.00 | 0.00 | 0.00 | 82 | 1005.4 |
| 20260508052946 | 66 | 93 | 0.0 | 0.0 | 0.00 | 0.00 | 0.00 | 82 | 1005.4 |
| 20260508052847 | 66 | 93 | 0.0 | 0.0 | 0.00 | 0.00 | 0.00 | 82 | 1005.4 |
| 20260508052747 | 66 | 93 | 0.0 | 0.0 | 0.00 | 0.00 | 0.00 | 82 | 1005.4 |
| 20260508052647 | 66 | 93 | 0.0 | 0.0 | 0.00 | 0.00 | 0.00 | 81 | 1005.5 |
| 20260508052546 | 66 | 93 | 0.0 | 0.0 | 0.00 | 0.00 | 0.00 | 81 | 1005.5 |
| 20260508052446 | 66 | 93 | 0.0 | 0.0 | 0.00 | 0.00 | 0.00 | 81 | 1005.5 |
| 20260508052347 | 66 | 93 | 0.0 | 0.0 | 0.00 | 0.00 | 0.00 | 81 | 1005.5 |
| 20260508052248 | 66 | 93 | 0.0 | 0.0 | 0.00 | 0.00 | 0.00 | 81 | 1005.4 |
| 20260508052148 | 66 | 93 | 0.0 | 0.0 | 0.00 | 0.00 | 0.00 | 81 | 1005.3 |
| 20260508052046 | 66 | 93 | 0.0 | 0.0 | 0.00 | 0.00 | 0.00 | 81 | 1005.2 |
| 20260508051946 | 66 | 93 | 0.0 | 0.0 | 0.00 | 0.00 | 0.00 | 81 | 1005.0 |
| 20260508051846 | 66 | 93 | 0.0 | 0.0 | 0.00 | 0.00 | 0.00 | 81 | 1004.9 |
| 20260508051746 | 66 | 93 | 0.0 | 0.0 | 0.00 | 0.00 | 0.00 | 81 | 1005.0 |
| 20260508051647 | 66 | 93 | 0.0 | 0.0 | 0.00 | 0.00 | 0.00 | 81 | 1004.9 |
| 20260508051547 | 66 | 93 | 0.0 | 0.0 | 0.00 | 0.00 | 0.00 | 81 | 1004.9 |
| 20260508051446 | 66 | 93 | 0.0 | 0.0 | 0.00 | 0.00 | 0.00 | 81 | 1004.9 |
| 20260508051346 | 66 | 93 | 0.0 | 0.0 | 0.00 | 0.00 | 0.00 | 81 | 1004.9 |
| 20260508051247 | 66 | 93 | 0.0 | 0.0 | 0.00 | 0.00 | 0.00 | 81 | 1004.9 |
| 20260508051146 | 66 | 93 | 0.0 | 0.0 | 0.00 | 0.00 | 0.00 | 81 | 1004.8 |
| 20260508051044 | 66 | 93 | 0.0 | 0.0 | 0.00 | 0.00 | 0.00 | 81 | 1004.9 |
| 20260508050944 | 66 | 93 | 0.0 | 0.0 | 0.00 | 0.00 | 0.00 | 80 | 1004.9 |
| 20260508050839 | 66 | 93 | 0.0 | 0.0 | 0.00 | 0.00 | 0.00 | 80 | 1004.9 |
| 20260508050732 | 66 | 93 | 0.0 | 0.0 | 0.00 | 0.00 | 0.00 | 80 | 1004.9 |
| 20260508050632 | 66 | 93 | 0.0 | 0.0 | 0.00 | 0.00 | 0.00 | 80 | 1004.9 |
| 20260508050515 | 66 | 93 | 0.0 | 0.0 | 0.00 | 0.00 | 0.00 | 80 | 1004.9 |
| 20260508050413 | 66 | 93 | 0.0 | 0.0 | 0.00 | 0.00 | 0.00 | 80 | 1004.9 |
| 20260508050308 | 66 | 93 | 0.0 | 0.0 | 0.00 | 0.00 | 0.00 | 80 | 1005.0 |
| 20260508050208 | 66 | 93 | 0.0 | 0.0 | 0.00 | 0.00 | 0.00 | 80 | 1005.1 |
| 20260508050103 | 66 | 93 | 0.0 | 0.0 | 0.00 | 0.00 | 0.00 | 80 | 1005.1 |
| 20260508050002 | 66 | 93 | 0.0 | 0.0 | 0.00 | 0.00 | 0.00 | 80 | 1005.2 |
| 20260508045904 | 66 | 93 | 0.0 | 0.0 | 0.00 | 0.00 | 0.00 | 80 | 1005.2 |
| 20260508045802 | 66 | 93 | 0.0 | 0.0 | 0.00 | 0.00 | 0.00 | 80 | 1005.2 |
| 20260508045704 | 66 | 93 | 0.0 | 0.0 | 0.00 | 0.00 | 0.00 | 80 | 1005.3 |
| 20260508045601 | 66 | 93 | 0.0 | 0.0 | 0.00 | 0.00 | 0.00 | 80 | 1005.3 |
| 20260508045502 | 66 | 93 | 0.0 | 0.0 | 0.00 | 0.00 | 0.00 | 80 | 1005.2 |
| 20260508045402 | 66 | 93 | 0.0 | 0.0 | 0.00 | 0.00 | 0.00 | 80 | 1005.1 |
| 20260508045306 | 66 | 93 | 0.0 | 0.0 | 0.00 | 0.00 | 0.00 | 80 | 1005.1 |
| 20260508045205 | 66 | 93 | 0.0 | 0.0 | 0.00 | 0.00 | 0.00 | 80 | 1005.0 |
| 20260508045102 | 66 | 93 | 0.0 | 0.0 | 0.00 | 0.00 | 0.00 | 80 | 1005.1 |
| 20260508045004 | 66 | 93 | 0.0 | 0.0 | 0.00 | 0.00 | 0.00 | 80 | 1005.1 |
| 20260508044903 | 66 | 93 | 0.0 | 0.0 | 0.00 | 0.00 | 0.00 | 80 | 1005.2 |
| 20260508044804 | 66 | 93 | 0.0 | 0.0 | 0.00 | 0.00 | 0.00 | 80 | 1005.2 |
| 20260508044710 | 66 | 93 | 0.0 | 0.0 | 0.00 | 0.00 | 0.00 | 80 | 1005.3 |
| 20260508044603 | 66 | 93 | 0.0 | 0.0 | 0.00 | 0.00 | 0.00 | 80 | 1005.4 |
| 20260508044503 | 66 | 93 | 0.0 | 0.0 | 0.00 | 0.00 | 0.00 | 80 | 1005.4 |
| 20260508044402 | 66 | 93 | 0.0 | 0.0 | 0.00 | 0.00 | 0.00 | 80 | 1005.4 |
| 20260508044302 | 66 | 93 | 0.0 | 0.0 | 0.00 | 0.00 | 0.00 | 80 | 1005.4 |
| 20260508044206 | 66 | 93 | 0.0 | 0.0 | 0.00 | 0.00 | 0.00 | 80 | 1005.4 |
| 20260508044102 | 66 | 93 | 0.0 | 0.0 | 0.00 | 0.00 | 0.00 | 80 | 1005.3 |
| 20260508044004 | 66 | 93 | 0.0 | 0.0 | 0.00 | 0.00 | 0.00 | 80 | 1005.3 |
| 20260508043901 | 66 | 93 | 0.0 | 0.0 | 0.00 | 0.00 | 0.00 | 80 | 1005.2 |
| 20260508043803 | 66 | 93 | 0.0 | 0.0 | 0.00 | 0.00 | 0.00 | 80 | 1005.2 |
| 20260508043702 | 66 | 93 | 0.0 | 0.0 | 0.00 | 0.00 | 0.00 | 80 | 1005.2 |
| 20260508043604 | 66 | 93 | 0.0 | 0.0 | 0.00 | 0.00 | 0.00 | 80 | 1005.2 |
| 20260508043503 | 66 | 93 | 0.0 | 0.0 | 0.00 | 0.00 | 0.00 | 80 | 1005.1 |
| 20260508043402 | 66 | 93 | 0.0 | 0.0 | 0.00 | 0.00 | 0.00 | 80 | 1005.1 |
| 20260508043302 | 66 | 93 | 0.0 | 0.0 | 0.00 | 0.00 | 0.00 | 80 | 1005.1 |
| 20260508043202 | 66 | 93 | 0.0 | 0.0 | 0.00 | 0.00 | 0.00 | 80 | 1005.1 |
| 20260508043103 | 66 | 93 | 0.0 | 0.0 | 0.00 | 0.00 | 0.00 | 80 | 1005.1 |
| 20260508043004 | 66 | 93 | 0.0 | 0.0 | 0.00 | 0.00 | 0.00 | 80 | 1005.2 |
| 20260508042902 | 66 | 93 | 0.0 | 0.0 | 0.00 | 0.00 | 0.00 | 79 | 1005.2 |
| 20260508042803 | 66 | 93 | 0.0 | 0.0 | 0.00 | 0.00 | 0.00 | 79 | 1005.2 |
| 20260508042705 | 67 | 93 | 0.0 | 0.0 | 0.00 | 0.00 | 0.00 | 79 | 1005.2 |
| 20260508042603 | 67 | 93 | 0.0 | 0.0 | 0.00 | 0.00 | 0.00 | 79 | 1005.2 |
| 20260508042504 | 66 | 93 | 0.0 | 0.0 | 0.00 | 0.00 | 0.00 | 79 | 1005.2 |
| 20260508042403 | 67 | 93 | 0.0 | 0.0 | 0.00 | 0.00 | 0.00 | 79 | 1005.2 |
| 20260508042306 | 67 | 93 | 0.0 | 0.0 | 0.00 | 0.00 | 0.00 | 79 | 1005.3 |
| 20260508042204 | 67 | 93 | 0.0 | 0.0 | 0.00 | 0.00 | 0.00 | 79 | 1005.3 |
| 20260508042104 | 67 | 93 | 0.0 | 0.0 | 0.00 | 0.00 | 0.00 | 79 | 1005.3 |
| 20260508042004 | 67 | 93 | 0.0 | 0.0 | 0.00 | 0.00 | 0.00 | 79 | 1005.4 |
| 20260508041903 | 67 | 93 | 0.0 | 0.0 | 0.00 | 0.00 | 0.00 | 79 | 1005.4 |
| 20260508041804 | 67 | 93 | 0.0 | 0.0 | 0.00 | 0.00 | 0.00 | 78 | 1005.4 |
| 20260508041704 | 67 | 93 | 0.0 | 0.0 | 0.00 | 0.00 | 0.00 | 78 | 1005.4 |
| 20260508041603 | 67 | 93 | 0.0 | 0.0 | 0.00 | 0.00 | 0.00 | 78 | 1005.3 |
| 20260508041505 | 67 | 93 | 0.0 | 0.0 | 0.00 | 0.00 | 0.00 | 78 | 1005.3 |
| 20260508041403 | 67 | 93 | 0.0 | 0.0 | 0.00 | 0.00 | 0.00 | 78 | 1005.4 |
| 20260508041304 | 67 | 93 | 0.0 | 0.0 | 0.00 | 0.00 | 0.00 | 78 | 1005.3 |
| 20260508041204 | 67 | 93 | 0.0 | 0.0 | 0.00 | 0.00 | 0.00 | 78 | 1005.4 |
| 20260508041105 | 67 | 93 | 0.0 | 0.0 | 0.00 | 0.00 | 0.00 | 78 | 1005.2 |
| 20260508041005 | 67 | 93 | 0.0 | 0.0 | 0.00 | 0.00 | 0.00 | 78 | 1005.2 |
| 20260508040903 | 67 | 93 | 0.0 | 0.0 | 0.00 | 0.00 | 0.00 | 78 | 1005.3 |
| 20260508040803 | 67 | 93 | 0.0 | 0.0 | 0.00 | 0.00 | 0.00 | 78 | 1005.2 |
| 20260508040702 | 67 | 93 | 0.0 | 0.0 | 0.00 | 0.00 | 0.00 | 78 | 1005.3 |
| 20260508040603 | 67 | 93 | 0.0 | 0.0 | 0.00 | 0.00 | 0.00 | 78 | 1005.4 |
| 20260508040503 | 67 | 93 | 0.0 | 0.0 | 0.00 | 0.00 | 0.00 | 78 | 1005.4 |
| 20260508040403 | 67 | 93 | 0.0 | 0.0 | 0.00 | 0.00 | 0.00 | 78 | 1005.5 |
| 20260508040303 | 67 | 93 | 0.0 | 0.0 | 0.00 | 0.00 | 0.00 | 78 | 1005.5 |
| 20260508040204 | 67 | 93 | 0.0 | 0.0 | 0.00 | 0.00 | 0.00 | 78 | 1005.6 |
| 20260508040108 | 67 | 93 | 0.0 | 0.0 | 0.00 | 0.00 | 0.00 | 78 | 1005.6 |
| 20260508040002 | 67 | 93 | 0.0 | 0.0 | 0.00 | 0.00 | 0.00 | 78 | 1005.6 |
| 20260508035902 | 67 | 93 | 0.0 | 0.0 | 0.00 | 0.00 | 0.00 | 78 | 1005.4 |
| 20260508035801 | 67 | 93 | 0.0 | 0.0 | 0.00 | 0.00 | 0.00 | 78 | 1005.4 |
| 20260508035702 | 67 | 93 | 0.0 | 0.0 | 0.00 | 0.00 | 0.00 | 78 | 1005.4 |
| 20260508035607 | 67 | 93 | 0.0 | 0.0 | 0.00 | 0.00 | 0.00 | 78 | 1005.4 |
| 20260508035505 | 67 | 93 | 0.0 | 0.0 | 0.00 | 0.00 | 0.00 | 78 | 1005.4 |
| 20260508035405 | 67 | 93 | 0.0 | 0.0 | 0.00 | 0.00 | 0.00 | 78 | 1005.4 |
| 20260508035306 | 67 | 93 | 0.0 | 0.0 | 0.00 | 0.00 | 0.00 | 78 | 1005.4 |
| 20260508035204 | 67 | 93 | 0.0 | 0.0 | 0.00 | 0.00 | 0.00 | 78 | 1005.4 |
| 20260508035106 | 67 | 93 | 0.0 | 0.0 | 0.00 | 0.00 | 0.00 | 78 | 1005.4 |
| 20260508035003 | 67 | 93 | 0.0 | 0.0 | 0.00 | 0.00 | 0.00 | 78 | 1005.5 |
| 20260508034903 | 67 | 93 | 0.0 | 0.0 | 0.00 | 0.00 | 0.00 | 78 | 1005.5 |
| 20260508034801 | 67 | 93 | 0.0 | 0.0 | 0.00 | 0.00 | 0.00 | 78 | 1005.5 |
| 20260508034702 | 67 | 93 | 0.0 | 0.0 | 0.00 | 0.00 | 0.00 | 78 | 1005.5 |
| 20260508034611 | 67 | 93 | 0.0 | 0.0 | 0.00 | 0.00 | 0.00 | 78 | 1005.4 |
| 20260508034503 | 67 | 93 | 0.0 | 0.0 | 0.00 | 0.00 | 0.00 | 78 | 1005.3 |
| 20260508034404 | 67 | 93 | 0.0 | 0.0 | 0.00 | 0.00 | 0.00 | 78 | 1005.3 |
| 20260508034303 | 67 | 93 | 0.0 | 0.0 | 0.00 | 0.00 | 0.00 | 78 | 1005.2 |
| 20260508034201 | 67 | 93 | 0.0 | 0.0 | 0.00 | 0.00 | 0.00 | 78 | 1005.2 |
| 20260508034104 | 67 | 93 | 0.0 | 1.0 | 0.00 | 0.00 | 0.00 | 78 | 1005.1 |
| 20260508034003 | 67 | 93 | 0.0 | 1.0 | 0.00 | 0.00 | 0.00 | 78 | 1005.1 |
| 20260508033902 | 67 | 93 | 0.0 | 1.0 | 0.00 | 0.00 | 0.00 | 78 | 1005.1 |
| 20260508033804 | 67 | 93 | 0.0 | 1.0 | 0.00 | 0.00 | 0.00 | 78 | 1005.0 |
| 20260508033702 | 67 | 93 | 0.0 | 1.0 | 0.00 | 0.00 | 0.00 | 78 | 1005.0 |
| 20260508033604 | 67 | 93 | 0.0 | 1.0 | 0.00 | 0.00 | 0.00 | 78 | 1005.0 |
| 20260508033503 | 67 | 82 | 0.0 | 1.0 | 0.00 | 0.00 | 0.00 | 78 | 1005.0 |
| 20260508033403 | 67 | 82 | 0.0 | 1.0 | 0.00 | 0.00 | 0.00 | 78 | 1005.0 |
| 20260508033302 | 67 | 82 | 0.0 | 1.0 | 0.00 | 0.00 | 0.00 | 78 | 1005.0 |
| 20260508033202 | 67 | 63 | 0.0 | 1.0 | 0.00 | 0.00 | 0.00 | 78 | 1005.0 |
| 20260508033102 | 67 | 47 | 0.0 | 0.0 | 0.00 | 0.00 | 0.00 | 78 | 1005.0 |
| 20260508033003 | 67 | 47 | 0.0 | 0.0 | 0.00 | 0.00 | 0.00 | 78 | 1005.1 |
| 20260508032902 | 67 | 47 | 0.0 | 0.0 | 0.00 | 0.00 | 0.00 | 78 | 1005.1 |
| 20260508032804 | 67 | 47 | 0.0 | 0.0 | 0.00 | 0.00 | 0.00 | 78 | 1005.2 |
| 20260508032702 | 67 | 47 | 0.0 | 0.0 | 0.00 | 0.00 | 0.00 | 78 | 1005.2 |
| 20260508032603 | 67 | 47 | 0.0 | 0.0 | 0.00 | 0.00 | 0.00 | 78 | 1005.3 |
| 20260508032501 | 67 | 47 | 0.0 | 0.0 | 0.00 | 0.00 | 0.00 | 78 | 1005.2 |
| 20260508032402 | 67 | 49 | 0.0 | 0.0 | 0.00 | 0.00 | 0.00 | 78 | 1005.2 |
| 20260508032306 | 67 | 49 | 0.0 | 0.0 | 0.00 | 0.00 | 0.00 | 78 | 1005.1 |
| 20260508032204 | 67 | 49 | 0.0 | 0.0 | 0.00 | 0.00 | 0.00 | 77 | 1005.1 |
| 20260508032102 | 67 | 49 | 0.0 | 0.0 | 0.00 | 0.00 | 0.00 | 77 | 1005.1 |
| 20260508032003 | 67 | 49 | 0.0 | 0.0 | 0.00 | 0.00 | 0.00 | 78 | 1005.1 |
| 20260508031902 | 67 | 52 | 0.0 | 0.0 | 0.00 | 0.00 | 0.00 | 78 | 1005.0 |
| 20260508031802 | 67 | 48 | 0.0 | 0.0 | 0.00 | 0.00 | 0.00 | 78 | 1004.9 |
| 20260508031703 | 67 | 48 | 0.0 | 0.0 | 0.00 | 0.00 | 0.00 | 78 | 1004.9 |
| 20260508031602 | 67 | 48 | 0.0 | 0.0 | 0.00 | 0.00 | 0.00 | 78 | 1004.9 |
| 20260508031503 | 67 | 48 | 0.0 | 0.0 | 0.00 | 0.00 | 0.00 | 78 | 1004.9 |
| 20260508031402 | 67 | 52 | 0.0 | 0.0 | 0.00 | 0.00 | 0.00 | 78 | 1004.9 |
| 20260508031303 | 67 | 52 | 0.0 | 0.0 | 0.00 | 0.00 | 0.00 | 78 | 1005.0 |
| 20260508031203 | 67 | 52 | 0.0 | 0.0 | 0.00 | 0.00 | 0.00 | 77 | 1005.0 |
| 20260508031108 | 67 | 52 | 0.0 | 0.0 | 0.00 | 0.00 | 0.00 | 77 | 1005.1 |
| 20260508031003 | 67 | 52 | 0.0 | 0.0 | 0.00 | 0.00 | 0.00 | 77 | 1005.1 |
| 20260508030902 | 68 | 52 | 0.0 | 0.0 | 0.00 | 0.00 | 0.00 | 77 | 1005.2 |
| 20260508030802 | 68 | 52 | 0.0 | 0.0 | 0.00 | 0.00 | 0.00 | 77 | 1005.2 |
| 20260508030704 | 68 | 52 | 0.0 | 0.0 | 0.00 | 0.00 | 0.00 | 77 | 1005.1 |
| 20260508030603 | 68 | 52 | 0.0 | 0.0 | 0.00 | 0.00 | 0.00 | 77 | 1005.1 |
| 20260508030503 | 68 | 52 | 0.0 | 0.0 | 0.00 | 0.00 | 0.00 | 77 | 1005.1 |
| 20260508030402 | 68 | 52 | 0.0 | 0.0 | 0.00 | 0.00 | 0.00 | 77 | 1005.0 |
| 20260508030302 | 68 | 52 | 0.0 | 0.0 | 0.00 | 0.00 | 0.00 | 77 | 1005.1 |
| 20260508030202 | 68 | 52 | 0.0 | 0.0 | 0.00 | 0.00 | 0.00 | 77 | 1005.1 |
| 20260508030103 | 68 | 52 | 0.0 | 1.0 | 0.00 | 0.00 | 0.00 | 77 | 1005.2 |
| 20260508030004 | 68 | 52 | 0.0 | 1.0 | 0.00 | 0.00 | 0.00 | 77 | 1005.1 |
| 20260508025903 | 68 | 52 | 0.0 | 1.0 | 0.00 | 0.00 | 0.00 | 77 | 1005.2 |
| 20260508025804 | 68 | 52 | 0.0 | 1.0 | 0.00 | 0.00 | 0.00 | 77 | 1005.2 |
| 20260508025704 | 68 | 52 | 0.0 | 1.0 | 0.00 | 0.00 | 0.00 | 77 | 1005.2 |
| 20260508025603 | 68 | 52 | 0.0 | 1.0 | 0.00 | 0.00 | 0.00 | 77 | 1005.2 |
| 20260508025504 | 68 | 52 | 0.0 | 1.0 | 0.00 | 0.00 | 0.00 | 77 | 1005.3 |
| 20260508025403 | 68 | 52 | 0.0 | 1.0 | 0.00 | 0.00 | 0.00 | 77 | 1005.3 |
| 20260508025306 | 68 | 52 | 0.0 | 1.0 | 0.00 | 0.00 | 0.00 | 77 | 1005.3 |
| 20260508025203 | 68 | 52 | 0.0 | 1.0 | 0.00 | 0.00 | 0.00 | 77 | 1005.2 |
| 20260508025104 | 68 | 86 | 0.0 | 0.0 | 0.00 | 0.00 | 0.00 | 77 | 1005.3 |
| 20260508025006 | 68 | 86 | 0.0 | 1.0 | 0.00 | 0.00 | 0.00 | 77 | 1005.3 |
| 20260508024904 | 68 | 86 | 0.0 | 1.0 | 0.00 | 0.00 | 0.00 | 77 | 1005.3 |
| 20260508024803 | 68 | 86 | 0.0 | 1.0 | 0.00 | 0.00 | 0.00 | 77 | 1005.3 |
| 20260508024703 | 68 | 86 | 0.0 | 1.0 | 0.00 | 0.00 | 0.00 | 77 | 1005.3 |
| 20260508024603 | 68 | 86 | 0.0 | 1.0 | 0.00 | 0.00 | 0.00 | 77 | 1005.3 |
| 20260508024517 | 68 | 86 | 0.0 | 1.0 | 0.00 | 0.00 | 0.00 | 77 | 1005.3 |
| 20260508024403 | 68 | 86 | 0.0 | 1.0 | 0.00 | 0.00 | 0.00 | 77 | 1005.3 |
| 20260508024303 | 68 | 86 | 0.0 | 1.0 | 0.00 | 0.00 | 0.00 | 77 | 1005.3 |
| 20260508024204 | 68 | 86 | 0.0 | 1.0 | 0.00 | 0.00 | 0.00 | 77 | 1005.4 |
| 20260508024103 | 68 | 86 | 0.0 | 1.0 | 0.00 | 0.00 | 0.00 | 77 | 1005.4 |
| 20260508024004 | 68 | 52 | 0.0 | 1.0 | 0.00 | 0.00 | 0.00 | 77 | 1005.5 |
| 20260508023903 | 68 | 52 | 0.0 | 1.0 | 0.00 | 0.00 | 0.00 | 77 | 1005.5 |
| 20260508023805 | 68 | 51 | 0.0 | 2.0 | 0.00 | 0.00 | 0.00 | 77 | 1005.7 |
| 20260508023703 | 68 | 51 | 0.0 | 2.0 | 0.00 | 0.00 | 0.00 | 77 | 1005.6 |
| 20260508023603 | 68 | 90 | 0.0 | 2.0 | 0.00 | 0.00 | 0.00 | 77 | 1005.7 |
| 20260508023504 | 68 | 73 | 0.0 | 2.0 | 0.00 | 0.00 | 0.00 | 77 | 1005.7 |
| 20260508023404 | 68 | 73 | 0.0 | 2.0 | 0.00 | 0.00 | 0.00 | 77 | 1005.6 |
| 20260508023306 | 68 | 73 | 0.0 | 2.0 | 0.00 | 0.00 | 0.00 | 77 | 1005.7 |
| 20260508023203 | 68 | 73 | 0.0 | 2.0 | 0.00 | 0.00 | 0.00 | 77 | 1005.6 |
| 20260508023103 | 68 | 71 | 0.0 | 2.0 | 0.00 | 0.00 | 0.00 | 77 | 1005.6 |
| 20260508023004 | 69 | 71 | 0.0 | 2.0 | 0.00 | 0.00 | 0.00 | 78 | 1005.6 |
| 20260508022903 | 69 | 71 | 1.0 | 2.0 | 0.00 | 0.00 | 0.00 | 78 | 1005.7 |
| 20260508022802 | 69 | 80 | 0.0 | 1.0 | 0.00 | 0.00 | 0.00 | 78 | 1005.7 |
| 20260508022702 | 69 | 80 | 0.0 | 2.0 | 0.00 | 0.00 | 0.00 | 78 | 1005.7 |
| 20260508022602 | 69 | 80 | 0.0 | 2.0 | 0.00 | 0.00 | 0.00 | 77 | 1005.7 |
| 20260508022503 | 69 | 80 | 0.0 | 2.0 | 0.00 | 0.00 | 0.00 | 77 | 1005.8 |
| 20260508022402 | 69 | 80 | 0.0 | 2.0 | 0.00 | 0.00 | 0.00 | 77 | 1005.7 |
| 20260508022306 | 69 | 80 | 0.0 | 2.0 | 0.00 | 0.00 | 0.00 | 77 | 1005.7 |
| 20260508022216 | 69 | 80 | 0.0 | 2.0 | 0.00 | 0.00 | 0.00 | 77 | 1005.7 |
| 20260508022102 | 69 | 80 | 0.0 | 2.0 | 0.00 | 0.00 | 0.00 | 77 | 1005.7 |
| 20260508022003 | 69 | 80 | 0.0 | 2.0 | 0.00 | 0.00 | 0.00 | 77 | 1005.7 |
| 20260508021902 | 69 | 80 | 0.0 | 2.0 | 0.00 | 0.00 | 0.00 | 77 | 1005.7 |
| 20260508021803 | 69 | 80 | 0.0 | 2.0 | 0.00 | 0.00 | 0.00 | 77 | 1005.7 |
| 20260508021714 | 69 | 82 | 0.0 | 0.0 | 0.00 | 0.00 | 0.00 | 77 | 1005.8 |
| 20260508021603 | 69 | 82 | 0.0 | 0.0 | 0.00 | 0.00 | 0.00 | 77 | 1005.8 |
| 20260508021505 | 69 | 82 | 0.0 | 0.0 | 0.00 | 0.00 | 0.00 | 77 | 1005.8 |
| 20260508021402 | 69 | 82 | 0.0 | 0.0 | 0.00 | 0.00 | 0.00 | 77 | 1005.8 |
| 20260508021302 | 69 | 82 | 0.0 | 0.0 | 0.00 | 0.00 | 0.00 | 77 | 1005.6 |
| 20260508021205 | 69 | 82 | 0.0 | 0.0 | 0.00 | 0.00 | 0.00 | 77 | 1005.6 |
| 20260508021103 | 69 | 82 | 0.0 | 0.0 | 0.00 | 0.00 | 0.00 | 77 | 1005.5 |
| 20260508021002 | 69 | 82 | 0.0 | 0.0 | 0.00 | 0.00 | 0.00 | 77 | 1005.5 |
| 20260508020903 | 69 | 82 | 0.0 | 0.0 | 0.00 | 0.00 | 0.00 | 77 | 1005.5 |
| 20260508020802 | 69 | 82 | 0.0 | 0.0 | 0.00 | 0.00 | 0.00 | 77 | 1005.5 |
| 20260508020705 | 69 | 82 | 0.0 | 0.0 | 0.00 | 0.00 | 0.00 | 77 | 1005.5 |
| 20260508020602 | 69 | 82 | 0.0 | 0.0 | 0.00 | 0.00 | 0.00 | 77 | 1005.5 |
| 20260508020503 | 69 | 82 | 0.0 | 0.0 | 0.00 | 0.00 | 0.00 | 78 | 1005.6 |
| 20260508020403 | 69 | 82 | 0.0 | 0.0 | 0.00 | 0.00 | 0.00 | 78 | 1005.7 |
| 20260508020303 | 69 | 82 | 0.0 | 0.0 | 0.00 | 0.00 | 0.00 | 78 | 1005.6 |
| 20260508020202 | 69 | 82 | 0.0 | 0.0 | 0.00 | 0.00 | 0.00 | 78 | 1005.6 |
| 20260508020103 | 69 | 82 | 0.0 | 0.0 | 0.00 | 0.00 | 0.00 | 78 | 1005.6 |
| 20260508020003 | 69 | 82 | 0.0 | 0.0 | 0.00 | 0.00 | 0.00 | 78 | 1005.6 |
| 20260508015902 | 69 | 82 | 0.0 | 0.0 | 0.00 | 0.00 | 0.00 | 78 | 1005.6 |
| 20260508015802 | 69 | 82 | 0.0 | 0.0 | 0.00 | 0.00 | 0.00 | 78 | 1005.6 |
| 20260508015702 | 69 | 82 | 0.0 | 0.0 | 0.00 | 0.00 | 0.00 | 78 | 1005.7 |
| 20260508015602 | 69 | 82 | 0.0 | 0.0 | 0.00 | 0.00 | 0.00 | 78 | 1005.6 |
| 20260508015504 | 69 | 82 | 0.0 | 0.0 | 0.00 | 0.00 | 0.00 | 78 | 1005.5 |
| 20260508015404 | 69 | 82 | 0.0 | 0.0 | 0.00 | 0.00 | 0.00 | 78 | 1005.6 |
| 20260508015305 | 70 | 82 | 0.0 | 0.0 | 0.00 | 0.00 | 0.00 | 77 | 1005.5 |
| 20260508015211 | 70 | 82 | 0.0 | 0.0 | 0.00 | 0.00 | 0.00 | 77 | 1005.5 |
| 20260508015102 | 70 | 82 | 0.0 | 0.0 | 0.00 | 0.00 | 0.00 | 77 | 1005.5 |
| 20260508015003 | 70 | 82 | 0.0 | 0.0 | 0.00 | 0.00 | 0.00 | 77 | 1005.6 |
| 20260508014904 | 70 | 82 | 0.0 | 0.0 | 0.00 | 0.00 | 0.00 | 77 | 1005.6 |
| 20260508014802 | 70 | 82 | 0.0 | 0.0 | 0.00 | 0.00 | 0.00 | 77 | 1005.7 |
| 20260508014708 | 70 | 82 | 0.0 | 0.0 | 0.00 | 0.00 | 0.00 | 77 | 1005.7 |
| 20260508014602 | 70 | 82 | 0.0 | 0.0 | 0.00 | 0.00 | 0.00 | 77 | 1005.7 |
| 20260508014502 | 70 | 82 | 0.0 | 0.0 | 0.00 | 0.00 | 0.00 | 77 | 1005.8 |
| 20260508014403 | 70 | 82 | 0.0 | 0.0 | 0.00 | 0.00 | 0.00 | 78 | 1005.7 |
| 20260508014243 | 70 | 82 | 0.0 | 0.0 | 0.00 | 0.00 | 0.00 | 78 | 1005.7 |
| 20260508014142 | 70 | 82 | 0.0 | 0.0 | 0.00 | 0.00 | 0.00 | 78 | 1005.7 |
| 20260508014043 | 70 | 82 | 0.0 | 0.0 | 0.00 | 0.00 | 0.00 | 78 | 1005.7 |
| 20260508013943 | 70 | 82 | 0.0 | 0.0 | 0.00 | 0.00 | 0.00 | 78 | 1005.7 |
| 20260508013843 | 70 | 82 | 0.0 | 0.0 | 0.00 | 0.00 | 0.00 | 78 | 1005.7 |
| 20260508013741 | 70 | 82 | 0.0 | 0.0 | 0.00 | 0.00 | 0.00 | 77 | 1005.7 |
| 20260508013647 | 70 | 82 | 0.0 | 0.0 | 0.00 | 0.00 | 0.00 | 77 | 1005.6 |
| 20260508013543 | 70 | 82 | 0.0 | 0.0 | 0.00 | 0.00 | 0.00 | 77 | 1005.7 |
| 20260508013443 | 70 | 82 | 0.0 | 0.0 | 0.00 | 0.00 | 0.00 | 77 | 1005.5 |
| 20260508013344 | 70 | 82 | 0.0 | 0.0 | 0.00 | 0.00 | 0.00 | 77 | 1005.5 |
| 20260508013243 | 70 | 82 | 0.0 | 0.0 | 0.00 | 0.00 | 0.00 | 77 | 1005.6 |
| 20260508013143 | 70 | 82 | 0.0 | 0.0 | 0.00 | 0.00 | 0.00 | 77 | 1005.6 |
| 20260508013043 | 70 | 82 | 0.0 | 0.0 | 0.00 | 0.00 | 0.00 | 77 | 1005.5 |
| 20260508012941 | 70 | 82 | 0.0 | 0.0 | 0.00 | 0.00 | 0.00 | 77 | 1005.7 |
| 20260508012842 | 70 | 82 | 0.0 | 0.0 | 0.00 | 0.00 | 0.00 | 77 | 1005.7 |
| 20260508012743 | 70 | 82 | 0.0 | 0.0 | 0.00 | 0.00 | 0.00 | 77 | 1005.7 |
| 20260508012647 | 70 | 82 | 0.0 | 0.0 | 0.00 | 0.00 | 0.00 | 77 | 1005.7 |
| 20260508012542 | 70 | 82 | 0.0 | 0.0 | 0.00 | 0.00 | 0.00 | 77 | 1005.7 |
| 20260508012442 | 70 | 82 | 0.0 | 0.0 | 0.00 | 0.00 | 0.00 | 77 | 1005.8 |
| 20260508012342 | 70 | 82 | 0.0 | 0.0 | 0.00 | 0.00 | 0.00 | 77 | 1005.8 |
| 20260508012243 | 70 | 82 | 0.0 | 0.0 | 0.00 | 0.00 | 0.00 | 77 | 1005.7 |
| 20260508012147 | 70 | 82 | 0.0 | 0.0 | 0.00 | 0.00 | 0.00 | 77 | 1005.7 |
| 20260508012043 | 71 | 82 | 0.0 | 0.0 | 0.00 | 0.00 | 0.00 | 77 | 1005.7 |
| 20260508011941 | 70 | 82 | 0.0 | 0.0 | 0.00 | 0.00 | 0.00 | 77 | 1005.6 |
| 20260508011842 | 71 | 82 | 0.0 | 0.0 | 0.00 | 0.00 | 0.00 | 77 | 1005.5 |
| 20260508011743 | 71 | 82 | 0.0 | 0.0 | 0.00 | 0.00 | 0.00 | 77 | 1005.4 |
| 20260508011643 | 71 | 82 | 0.0 | 0.0 | 0.00 | 0.00 | 0.00 | 77 | 1005.4 |
| 20260508011543 | 71 | 82 | 0.0 | 0.0 | 0.00 | 0.00 | 0.00 | 77 | 1005.3 |
| 20260508011441 | 71 | 82 | 0.0 | 0.0 | 0.00 | 0.00 | 0.00 | 77 | 1005.4 |
| 20260508011342 | 71 | 82 | 0.0 | 0.0 | 0.00 | 0.00 | 0.00 | 77 | 1005.4 |
| 20260508011241 | 71 | 82 | 0.0 | 0.0 | 0.00 | 0.00 | 0.00 | 77 | 1005.4 |
| 20260508011145 | 71 | 82 | 0.0 | 0.0 | 0.00 | 0.00 | 0.00 | 77 | 1005.3 |